GFSFLT1_sfc_thetae_000.txt.gz
Theta_e
339 339 340 343 348 348 349 347 345 344 347 347 344 341 343 345 344 337 338 340 339 336 335 336 340 340 341 341 342 342 343 341 341
338 337 339 342 346 347 347 343 344 345 347 346 343 341 345 345 345 344 341 343 343 338 341 337 337 339 340 340 341 342 342 339 340
338 336 338 341 343 345 343 342 344 345 346 345 343 342 343 339 340 342 341 341 341 341 342 341 340 340 339 339 340 340 341 340 340
338 335 336 340 343 345 341 342 342 343 343 343 342 342 341 341 340 339 339 338 340 341 342 342 341 341 341 340 339 339 339 338 336
337 339 334 335 342 344 339 340 338 339 340 339 339 340 339 339 340 340 339 338 339 340 340 341 341 341 341 340 339 340 339 336 336
337 340 337 334 338 339 338 339 339 338 338 335 335 337 337 338 338 339 338 338 338 339 340 340 340 341 339 338 338 338 338 337 334
335 338 338 336 336 337 339 339 341 340 338 335 335 335 335 337 339 338 337 338 339 339 340 340 340 341 340 339 339 338 337 335 334
333 334 336 337 336 336 339 340 341 340 338 338 338 336 336 337 339 340 338 339 340 340 339 338 340 338 338 338 336 334 336 333 332
328 332 334 336 337 337 338 339 339 337 338 336 339 338 336 338 339 340 341 339 339 339 337 337 337 337 335 336 334 324 326 328 331
327 330 334 335 336 338 339 338 336 335 336 337 338 339 338 338 340 340 340 337 338 337 337 337 335 335 335 335 336 325 324 325 330
327 329 333 335 336 338 338 335 332 336 334 337 339 339 338 338 339 339 339 337 336 336 337 335 334 334 334 334 333 322 322 324 331
329 332 336 337 338 337 336 334 334 335 336 336 336 336 337 337 338 338 338 337 336 337 335 333 332 333 334 334 333 319 319 323 330
332 334 337 337 337 335 334 336 334 335 335 336 334 335 336 336 338 338 337 337 336 336 335 332 330 331 333 329 332 321 317 322 332
333 335 336 337 336 333 335 338 338 336 335 334 336 336 334 335 339 341 340 338 337 335 335 333 333 333 333 332 328 331 316 313 329
333 333 333 335 334 334 337 340 341 339 338 343 340 338 337 339 341 339 333 340 336 334 334 333 332 332 329 327 331 319 315 311 311
332 333 333 334 334 337 339 341 341 339 343 343 341 341 339 337 334 336 339 338 336 330 330 326 323 324 323 325 326 327 315 312 310
332 333 333 334 334 333 335 338 339 341 342 342 339 336 335 336 336 336 337 334 330 328 324 325 325 323 323 323 324 325 324 322 324
329 331 331 332 333 333 334 337 337 337 337 336 334 333 333 334 332 333 332 336 327 327 318 318 320 324 324 322 321 319 301 302 314
329 331 331 332 333 333 331 332 333 335 337 336 336 332 330 329 328 327 326 328 323 302 302 299 297 297 305 318 302 296 295 295 295
323 331 331 331 330 330 331 331 331 332 334 335 334 332 329 327 322 324 329 331 324 310 305 299 297 297 297 295 295 295 294 295 295

GFSFLT1_sfc_thetae_003.txt.gz
Theta_e
335 337 338 339 342 345 349 349 350 346 350 351 349 344 346 346 345 338 338 340 340 337 337 337 343 343 342 343 343 343 346 342 340
335 337 339 339 342 348 347 349 347 346 350 352 347 343 349 347 346 345 343 345 344 339 343 339 340 341 342 343 342 342 344 338 341
332 338 340 340 341 347 347 348 345 344 347 348 346 345 346 341 340 343 344 343 343 343 343 343 342 341 341 342 342 344 345 341 342
331 337 340 339 342 346 347 346 343 340 344 345 345 344 344 342 341 341 342 340 340 342 344 344 342 341 340 341 341 342 343 341 340
331 339 342 340 342 344 345 342 341 339 339 340 342 342 342 341 341 341 340 340 340 342 341 343 342 341 341 340 340 343 340 338 338
331 338 342 341 342 343 345 341 344 338 337 337 338 340 340 340 341 341 341 341 340 340 340 340 340 341 340 340 339 339 339 339 337
330 336 341 341 340 343 347 344 346 340 337 337 336 337 336 339 340 342 341 342 341 341 342 341 341 342 341 339 339 339 339 338 337
328 333 338 342 338 342 349 345 347 342 338 339 338 337 337 338 341 343 343 342 342 341 340 339 340 341 339 337 337 333 338 338 335
324 328 335 340 341 340 344 343 341 340 338 338 340 339 338 340 340 341 341 341 341 340 340 340 341 337 338 339 333 327 326 330 332
325 326 332 337 341 344 346 342 345 339 338 340 339 340 340 340 340 341 341 340 339 339 340 343 341 337 337 338 339 324 328 329 330
328 329 329 336 339 342 343 343 341 340 338 342 341 340 340 340 340 340 341 340 339 341 341 342 340 338 339 338 335 322 324 327 331
331 333 335 337 340 342 345 342 341 340 337 338 338 339 340 340 340 340 340 339 340 341 341 338 337 338 337 339 339 320 320 326 330
333 335 338 339 341 342 342 341 334 338 337 338 338 340 339 340 340 339 339 341 342 341 341 335 332 333 335 329 338 326 317 322 328
336 338 340 342 342 340 346 342 341 342 340 339 341 339 339 342 341 344 343 343 334 339 338 337 336 333 336 336 332 327 317 315 329
335 337 339 340 339 339 340 344 346 344 347 349 346 345 341 343 346 338 333 343 341 340 338 336 333 331 329 323 329 323 319 314 313
335 337 338 339 338 340 342 343 344 343 349 348 345 346 346 344 343 337 337 340 342 333 337 335 322 324 324 325 324 328 316 314 311
335 337 336 337 337 337 339 343 344 346 346 347 345 345 342 342 343 340 340 339 333 330 328 325 323 323 324 322 325 323 322 322 323
336 337 337 338 336 336 337 340 341 342 344 345 342 339 337 336 333 335 334 337 327 327 320 316 321 322 323 321 321 315 301 302 314
334 335 334 337 336 333 337 338 339 339 341 340 338 335 333 330 329 328 326 327 323 301 302 298 296 296 304 315 301 297 295 296 296
329 332 332 330 331 333 335 336 336 337 338 337 336 333 331 327 324 325 327 329 329 324 310 300 298 297 298 297 296 296 295 297 299

GFSFLT1_sfc_thetae_006.txt.gz
Theta_e
332 332 337 339 342 342 346 350 355 354 355 354 354 353 354 352 354 350 349 353 347 345 344 346 351 349 349 348 348 347 347 343 343
330 331 334 338 342 343 348 350 353 354 354 355 353 351 356 354 354 353 351 353 353 346 352 343 345 347 347 347 347 346 346 342 341
327 334 335 337 339 344 350 351 353 352 354 355 351 351 351 350 352 351 352 352 350 350 350 350 348 346 345 345 345 346 344 342 340
325 327 334 340 341 346 351 349 350 348 350 352 349 349 351 352 347 347 350 348 347 349 351 351 348 347 344 343 342 344 342 342 340
327 331 335 342 342 347 349 348 347 345 344 346 347 348 351 350 349 349 349 348 347 350 349 350 348 346 344 341 341 342 339 339 338
334 336 342 345 343 343 347 348 347 343 341 341 343 346 343 347 348 347 348 348 349 348 348 346 346 345 342 341 341 341 340 339 338
330 338 338 344 345 345 347 348 346 344 340 339 340 340 342 346 346 347 347 349 350 348 347 346 345 345 344 341 341 340 339 338 337
328 334 337 344 343 345 348 348 346 346 341 344 343 343 344 346 349 348 349 348 348 347 347 346 346 344 343 343 340 335 339 338 337
327 330 331 338 345 344 349 348 346 343 342 344 348 337 342 347 347 346 346 347 348 347 347 346 346 342 341 341 337 329 333 334 336
327 330 332 335 343 343 351 347 346 342 344 345 345 344 344 345 346 345 346 346 346 346 347 346 344 342 341 340 339 326 327 331 333
326 331 332 335 339 345 350 347 345 346 343 343 345 344 344 344 345 344 346 345 345 347 346 345 342 340 341 339 337 324 323 327 331
329 334 340 341 337 342 349 346 346 346 340 341 342 342 343 344 344 344 344 344 344 346 343 342 341 341 339 337 338 323 319 322 330
331 333 339 342 344 346 348 347 346 343 339 341 339 341 343 345 346 345 344 344 344 342 346 341 336 335 338 333 339 319 318 323 322
334 336 339 343 347 347 349 348 344 339 339 340 343 344 345 346 347 347 347 348 346 343 338 336 337 337 337 337 334 329 320 317 323
335 338 340 343 347 347 349 350 348 340 341 348 353 349 347 348 349 342 337 346 344 338 341 336 335 335 330 328 330 319 318 317 315
336 338 340 343 345 349 349 348 353 350 353 356 354 354 352 351 352 347 348 343 339 339 335 334 336 330 325 323 327 330 318 314 312
338 332 340 342 345 345 346 353 352 352 351 353 350 351 351 351 348 348 345 340 341 330 335 331 329 324 328 327 328 320 315 317 320
332 342 335 336 335 333 331 332 333 336 340 342 345 347 348 347 341 340 337 320 317 328 312 312 322 318 320 317 319 310 301 301 309
338 338 338 334 337 335 328 331 335 339 337 343 343 341 338 336 335 326 334 324 317 301 300 297 296 297 305 309 301 298 296 296 296
331 337 335 328 329 328 328 327 338 343 343 339 341 338 337 333 325 330 330 330 328 323 309 301 299 299 299 299 298 297 296 297 298

GFSFLT1_sfc_thetae_009.txt.gz
Theta_e
325 324 331 333 334 336 342 346 352 351 345 343 340 339 334 331 332 330 332 337 333 329 328 331 334 333 335 334 335 335 334 331 330
323 324 329 332 334 335 341 345 350 348 345 344 341 339 336 334 334 334 335 334 333 331 335 333 334 334 333 334 335 335 332 331 330
323 324 330 332 334 337 341 347 348 347 346 343 343 340 339 339 338 336 335 334 332 332 331 334 333 334 334 333 333 333 332 329 330
322 325 327 332 337 338 342 347 347 345 345 344 341 341 339 339 339 337 336 334 332 333 334 335 334 334 333 332 332 333 332 330 330
319 323 327 332 334 336 342 344 344 344 345 343 340 340 340 336 331 332 334 333 332 333 333 334 334 333 333 333 332 331 330 328 330
321 321 330 331 328 333 342 342 341 342 343 342 339 338 339 335 333 331 331 333 333 333 332 332 331 333 331 331 331 330 331 329 329
323 324 334 333 338 340 341 342 339 338 339 340 338 339 338 335 334 333 333 334 334 334 333 332 333 333 332 331 331 331 332 331 327
317 321 327 334 335 341 340 340 338 338 336 337 338 336 335 334 335 334 335 334 335 334 333 334 333 332 331 331 333 333 326 329 331
317 318 319 328 337 338 340 340 338 337 334 334 335 334 334 337 336 335 335 334 335 333 332 333 333 331 330 330 333 328 328 328 324
317 319 320 319 323 337 340 342 340 336 334 335 334 333 334 335 336 334 334 335 335 335 333 331 329 330 330 328 329 327 327 328 323
318 319 321 321 325 339 342 341 338 337 337 333 332 332 333 334 334 334 334 333 333 333 331 329 329 329 328 329 329 324 323 325 321
320 324 325 326 327 340 342 339 338 336 334 332 333 332 333 335 334 333 333 334 333 332 331 330 331 330 328 327 326 319 319 320 319
325 326 327 327 329 339 340 339 337 334 332 332 332 333 334 336 335 334 334 334 334 332 331 329 328 324 328 325 321 319 318 318 317
326 325 328 332 333 338 338 339 337 332 331 330 333 333 335 336 336 335 335 335 333 332 330 322 322 324 326 325 323 319 317 315 315
326 325 330 332 337 338 339 338 335 330 329 333 335 335 335 337 337 338 338 335 334 331 328 325 324 322 323 321 322 316 314 315 313
323 328 331 335 338 336 334 335 334 326 320 319 330 337 336 337 338 338 331 332 331 327 326 326 324 321 320 317 319 316 314 311 311
327 331 330 329 327 323 322 324 324 324 324 324 322 326 336 335 336 333 332 329 326 324 323 320 320 318 315 316 315 307 306 308 308
329 329 329 330 326 326 324 324 324 324 325 325 322 321 324 333 333 329 318 313 313 319 305 307 313 310 310 309 306 303 299 301 304
326 326 329 327 323 323 323 325 325 325 322 323 321 321 328 328 326 323 319 312 305 300 300 297 297 298 305 302 301 298 297 296 295
326 325 326 327 326 326 325 324 323 326 325 325 328 329 324 324 318 320 320 313 309 304 302 300 298 298 299 300 300 298 297 297 296

GFSFLT1_sfc_thetae_012.txt.gz
Theta_e
329 330 332 333 334 337 344 345 347 351 348 345 339 333 331 328 328 326 326 328 330 324 325 330 331 331 331 331 332 332 331 329 328
326 329 331 332 335 336 341 345 346 349 346 342 338 334 330 328 328 330 332 332 329 327 330 331 331 332 331 331 333 332 330 328 328
321 328 331 332 334 336 341 345 348 350 346 342 337 334 331 330 330 330 332 330 329 330 328 330 330 331 330 331 330 329 329 328 327
320 322 329 332 334 336 341 344 348 348 345 341 336 336 333 332 333 333 331 330 330 330 329 331 332 332 331 330 329 330 329 328 328
321 322 326 330 332 334 339 342 347 346 344 340 338 337 335 334 335 334 331 330 330 330 330 331 331 330 330 330 330 329 327 327 327
319 322 328 330 331 332 337 341 345 344 343 340 339 337 335 333 332 330 330 330 330 329 329 329 329 328 327 328 328 327 327 327 327
318 322 326 329 329 332 337 341 343 343 342 341 338 338 335 334 329 328 329 331 330 329 329 328 328 328 329 330 329 328 328 328 327
319 319 325 325 328 327 335 340 341 342 342 340 338 336 336 334 332 331 329 330 332 330 330 329 329 329 329 329 329 331 329 326 326
314 316 324 328 330 329 328 339 339 340 340 339 337 334 335 335 332 332 331 332 332 330 330 329 329 329 329 326 329 329 327 325 321
314 316 317 318 331 335 336 339 340 337 337 337 336 335 335 333 333 332 332 332 331 330 328 328 328 329 327 327 326 325 325 328 322
314 315 317 316 318 327 339 341 339 338 333 336 335 332 332 334 334 332 332 332 331 331 330 330 328 326 328 326 326 324 322 325 320
315 316 317 319 321 324 336 340 339 335 333 334 333 331 331 333 333 332 331 330 330 330 329 327 326 327 327 324 325 320 319 320 318
321 322 322 324 323 331 336 335 336 333 331 330 329 331 332 333 333 332 331 331 331 330 329 329 327 324 325 324 324 318 316 316 316
321 322 324 325 330 334 333 335 335 331 330 329 330 331 332 331 333 332 332 332 331 331 327 323 324 324 325 325 323 321 314 313 314
321 323 324 330 332 331 332 332 331 327 324 329 330 331 333 334 334 335 334 331 330 327 324 324 322 322 319 321 319 314 312 312 309
318 322 332 330 325 326 330 328 326 322 320 325 325 323 321 322 325 326 331 331 328 325 323 321 320 319 319 316 315 309 308 308 309
328 326 324 324 324 324 323 324 324 321 323 325 324 324 324 322 324 321 323 328 326 324 322 320 319 317 314 312 308 305 305 306 305
326 327 326 325 324 323 321 323 323 323 323 323 322 322 321 321 322 326 321 316 314 315 306 309 312 310 310 310 305 304 300 299 302
325 326 323 321 321 322 321 323 321 322 323 322 322 321 320 320 324 321 315 308 304 299 299 297 297 300 303 301 301 298 297 295 295
321 323 322 320 321 323 325 322 322 322 324 323 319 319 318 323 319 319 313 308 307 304 304 300 297 296 298 299 298 296 295 295 295

GFSFLT1_sfc_thetae_015.txt.gz
Theta_e
326 329 335 336 338 338 338 341 344 346 345 344 344 339 333 325 325 324 324 323 326 325 326 329 329 329 330 328 329 330 329 327 326
324 327 333 336 338 339 339 341 343 346 345 345 343 337 329 325 325 325 324 327 328 324 324 330 330 330 330 329 329 330 328 326 326
323 327 330 334 337 337 340 343 344 346 348 345 342 332 330 327 327 329 329 329 327 327 328 329 329 329 328 328 329 328 326 325 326
323 326 329 331 335 336 338 343 344 345 347 344 336 336 330 327 327 329 329 329 328 329 327 327 328 329 328 329 328 327 326 326 326
324 327 328 330 332 334 334 339 342 344 346 343 339 336 331 329 329 329 329 329 328 328 327 328 329 330 329 328 328 328 326 325 326
319 322 326 329 330 332 333 336 340 344 345 343 339 336 331 330 331 331 330 330 329 328 328 328 330 328 327 327 327 326 326 325 325
319 320 323 326 329 331 332 334 338 344 345 344 339 335 332 330 331 333 332 331 330 329 328 327 327 326 326 326 327 327 327 326 325
317 319 321 325 327 328 330 332 337 344 345 342 340 335 333 331 332 334 332 332 331 330 329 329 327 327 327 328 329 330 326 326 326
316 317 322 325 326 326 328 332 337 342 343 342 340 336 333 333 333 332 329 329 330 330 328 329 328 327 327 327 329 327 328 329 321
317 318 321 323 323 324 324 331 338 339 341 342 338 336 334 334 334 334 332 331 330 328 329 328 328 327 328 327 326 324 324 328 323
312 314 317 321 325 328 329 327 336 338 340 339 337 332 334 335 334 332 332 331 330 329 330 328 328 327 326 326 327 322 322 325 323
313 314 313 314 318 325 329 333 334 335 334 336 335 332 333 335 334 331 331 329 330 329 329 328 328 326 324 325 326 320 318 319 319
316 317 319 319 320 325 330 332 334 333 331 333 333 333 332 333 334 333 331 330 330 329 329 328 327 324 324 324 326 320 316 316 316
318 318 319 323 328 329 331 333 332 327 328 328 329 331 331 331 330 330 330 329 330 330 327 324 323 323 325 326 324 322 315 313 314
317 320 326 332 330 329 331 331 330 327 325 328 329 330 329 326 329 333 331 329 325 321 323 325 322 322 322 321 321 314 312 311 312
324 329 329 328 327 326 326 327 328 325 322 324 325 323 322 323 323 327 327 326 319 318 319 324 322 320 317 316 314 309 307 307 308
325 324 323 324 325 322 319 320 322 321 323 326 325 323 322 321 321 320 322 323 322 322 323 322 319 318 316 313 308 306 305 305 304
326 324 322 322 321 320 319 321 322 323 323 324 322 320 320 320 322 323 321 310 308 316 310 311 318 315 313 310 306 305 302 300 302
327 324 323 321 321 321 320 321 321 321 320 322 318 317 317 316 318 319 317 311 305 301 299 297 297 301 305 301 301 299 297 295 295
321 323 320 322 322 321 319 319 319 320 320 321 317 315 315 315 316 317 315 309 305 303 302 297 295 295 297 299 298 296 296 294 294

GFSFLT1_sfc_thetae_018.txt.gz
Theta_e
328 328 332 333 334 335 336 339 340 341 342 343 345 346 345 343 339 333 331 330 327 329 330 333 334 333 334 332 332 333 334 333 332
323 326 332 333 335 336 337 338 340 341 342 344 345 346 344 336 334 328 328 328 328 329 331 333 333 333 334 333 333 334 334 332 332
322 325 330 333 336 337 338 339 341 343 344 344 344 344 339 335 330 328 327 328 329 328 329 332 333 332 333 334 333 334 332 331 332
321 323 327 332 336 338 339 340 341 342 344 344 343 341 337 333 329 328 328 329 331 330 330 331 332 333 332 332 332 333 331 331 331
319 322 326 331 335 337 339 339 340 341 344 345 345 341 337 333 330 330 330 330 331 331 331 331 332 332 332 332 333 333 331 331 331
318 322 324 328 331 335 337 338 340 342 343 345 346 341 336 332 329 330 331 332 331 330 330 330 332 332 332 332 332 332 332 330 330
318 322 325 326 327 331 334 334 338 342 343 346 344 340 337 332 329 330 331 332 332 330 330 330 330 332 332 330 331 330 331 331 330
318 318 320 325 327 329 331 332 334 339 343 345 343 339 336 333 332 333 333 334 334 333 330 330 330 331 330 330 329 330 332 332 331
318 318 320 323 326 328 328 330 332 338 342 345 342 338 335 333 333 333 332 330 329 330 332 330 330 330 330 330 331 328 328 332 331
318 320 321 320 324 326 327 329 334 338 342 344 340 338 333 332 331 330 330 329 329 330 331 330 330 330 330 331 331 325 325 328 332
317 318 321 322 323 325 326 332 336 339 341 341 338 335 332 331 328 329 330 330 328 330 332 330 329 330 330 331 332 323 321 324 330
315 319 320 323 325 327 328 327 332 337 338 339 336 334 332 331 330 330 331 332 331 332 331 331 330 331 331 330 331 320 320 323 327
316 317 317 318 320 324 329 332 332 334 334 336 335 334 334 334 332 331 333 332 332 333 332 332 331 327 328 325 328 320 318 321 324
319 321 323 326 327 328 331 335 333 330 331 333 335 335 336 335 335 335 334 332 332 331 329 329 326 326 326 327 326 327 318 316 319
325 326 329 330 329 330 332 333 332 329 329 330 333 333 333 332 332 333 332 332 330 329 327 325 325 325 325 326 326 318 317 310 313
325 325 325 328 327 326 327 330 331 328 327 330 330 329 330 332 332 332 332 330 326 323 321 322 324 325 325 326 321 316 308 306 308
324 324 325 326 324 323 323 324 326 327 327 328 328 326 326 327 328 327 327 326 323 321 322 323 324 325 323 321 317 313 311 311 311
326 325 325 325 323 323 322 323 325 327 328 328 326 326 325 323 322 322 314 308 310 321 314 318 324 323 322 318 313 312 306 306 308
327 325 324 323 322 323 321 323 323 323 325 326 324 321 321 320 322 322 316 312 306 299 298 297 297 299 310 308 304 299 298 296 296
321 324 323 322 322 321 321 322 322 323 323 322 321 320 320 320 318 320 315 314 311 307 303 296 295 296 297 299 298 296 295 293 294

GFSFLT1_sfc_thetae_021.txt.gz
Theta_e
333 334 336 338 342 343 344 346 350 351 353 354 357 355 359 360 359 356 351 353 347 342 342 341 347 348 348 347 345 344 344 342 342
331 334 336 337 339 342 345 347 349 351 353 354 356 355 359 358 360 357 353 353 346 342 344 342 345 347 346 344 342 343 345 341 342
329 333 336 337 340 343 346 347 350 352 354 354 355 355 356 356 356 355 354 347 339 343 343 344 345 345 344 343 343 344 344 341 342
327 331 334 338 342 345 347 348 348 350 351 354 355 356 358 357 353 350 340 343 336 337 340 341 344 343 343 343 343 343 343 342 341
327 331 333 337 340 343 344 347 346 347 350 351 354 356 356 353 348 337 343 340 340 339 338 339 340 341 342 342 343 343 342 340 338
329 331 333 336 339 343 346 347 349 349 350 349 351 354 351 349 337 342 339 337 338 336 337 336 337 339 340 340 341 341 342 341 339
329 331 332 335 338 343 346 349 350 351 349 350 351 352 350 346 340 342 341 339 336 332 334 334 335 337 338 340 341 341 340 339 339
328 329 332 336 337 342 346 348 351 351 350 353 354 353 350 346 342 344 342 341 338 331 333 334 337 335 337 339 339 338 339 339 340
328 330 331 334 337 339 342 345 346 348 350 351 355 351 349 346 342 343 342 341 339 337 332 335 337 335 335 337 337 329 329 336 340
329 332 334 334 336 341 342 342 345 345 348 353 352 350 348 343 343 342 341 339 339 338 337 337 336 336 337 338 338 327 327 331 339
329 332 334 334 334 338 341 342 343 347 349 352 351 349 345 343 342 341 342 339 337 339 339 336 337 338 339 339 340 325 323 327 338
328 330 332 334 335 337 339 342 345 348 349 351 350 347 344 344 343 341 340 337 337 340 340 338 337 339 339 339 341 320 320 323 331
327 330 333 335 337 339 340 341 346 347 348 348 347 347 345 344 343 341 338 338 338 340 339 339 337 338 339 333 339 319 317 322 325
330 330 332 336 339 340 343 345 344 344 346 346 349 348 346 343 342 340 340 340 340 339 339 338 338 338 339 336 336 328 315 315 323
334 336 338 339 339 340 343 345 346 345 345 349 348 344 343 341 342 339 339 340 339 340 339 338 338 336 330 336 338 319 315 313 314
333 334 335 338 339 340 342 344 344 342 336 341 344 344 342 339 339 340 339 338 340 338 338 338 336 328 329 331 331 329 311 309 309
333 334 335 338 340 339 338 340 337 340 341 343 343 341 340 340 340 339 339 338 337 335 334 333 329 329 328 328 326 326 321 319 319
334 335 335 335 336 336 334 336 337 339 338 338 339 339 339 338 335 334 327 320 321 328 329 321 328 329 328 326 327 326 315 316 322
334 334 334 335 334 335 333 332 336 337 336 337 337 335 334 332 332 328 324 320 316 299 299 298 299 301 318 321 305 299 299 298 297
324 333 332 332 334 334 335 335 335 335 336 337 335 331 329 328 327 326 322 321 321 318 305 297 295 296 297 300 299 296 294 294 293

GFSFLT1_sfc_thetae_024.txt.gz
Theta_e
335 338 339 338 341 342 344 347 352 355 363 366 366 363 368 369 367 361 361 362 356 350 345 345 353 351 352 352 352 350 348 343 343
331 336 339 339 341 344 345 349 355 360 364 368 368 363 369 366 366 364 362 364 364 354 354 347 350 351 350 351 350 348 348 342 344
330 334 338 340 341 344 347 349 353 356 362 366 364 362 363 362 363 365 365 363 362 357 353 350 349 349 349 349 348 347 349 343 344
327 330 336 339 342 344 348 350 351 354 357 359 360 364 365 366 361 362 362 361 360 356 352 350 349 349 347 347 345 347 347 346 342
326 329 333 338 342 344 345 349 350 352 354 356 358 363 367 363 364 362 360 358 354 352 349 348 347 345 345 345 346 347 345 343 340
329 336 337 338 341 344 346 348 354 352 354 354 356 359 359 361 361 359 356 354 352 347 345 346 341 344 343 344 345 346 346 344 341
329 332 338 340 341 344 347 351 357 358 354 355 356 356 358 362 360 359 356 356 349 344 346 345 343 339 344 345 345 344 343 343 343
326 334 338 341 341 344 349 352 357 356 355 356 357 357 357 360 364 357 355 358 352 349 347 344 343 341 342 344 342 340 343 343 341
326 332 338 341 343 345 349 351 354 355 355 356 358 357 358 361 359 354 357 355 352 348 348 346 345 343 342 343 339 330 332 340 341
327 329 337 340 343 346 349 351 355 354 356 357 358 359 360 360 358 354 353 352 349 349 344 341 345 343 343 342 343 327 328 332 340
329 331 333 340 342 345 349 351 353 354 356 358 359 360 359 359 356 353 352 352 349 347 341 343 342 343 344 344 341 326 325 329 339
333 334 337 340 344 346 349 349 352 353 354 356 357 357 358 357 354 352 350 349 349 346 343 342 342 342 343 344 344 323 322 328 339
331 333 338 342 343 344 347 349 351 352 353 355 354 356 356 356 355 353 350 348 348 347 344 340 340 341 345 336 344 318 318 328 338
335 337 341 343 344 344 348 351 353 352 353 353 356 356 356 355 355 352 350 349 347 345 343 342 342 342 343 343 342 340 315 317 334
338 340 342 345 346 347 348 352 354 353 353 356 358 357 355 353 352 348 346 345 342 343 340 338 340 342 342 343 346 325 314 313 315
339 341 342 344 346 347 351 354 354 352 354 357 356 355 352 349 346 346 345 342 341 338 339 338 338 341 339 339 337 332 313 310 311
337 339 340 342 344 346 348 351 353 351 352 354 351 349 346 344 342 340 342 341 341 339 338 336 336 339 335 333 332 328 329 326 316
339 340 343 345 346 347 348 350 349 351 350 351 346 346 345 340 339 337 331 324 321 333 325 323 337 332 333 330 330 330 317 318 329
340 339 343 343 344 345 344 346 345 345 349 348 346 343 342 340 340 339 338 333 324 299 300 299 301 303 322 314 306 301 300 301 298
333 342 342 341 341 343 345 343 343 346 344 345 344 342 340 337 334 336 334 332 330 326 310 298 296 296 298 300 299 296 296 295 294

GFSFLT1_sfc_thetae_027.txt.gz
Theta_e
334 338 339 338 340 341 344 348 355 358 363 371 374 374 373 375 376 363 361 365 356 352 346 347 362 358 357 353 355 354 352 344 343
328 335 338 339 340 341 341 347 354 357 362 370 373 371 375 375 374 371 362 367 370 358 363 348 356 355 354 354 351 350 350 343 345
327 330 335 339 340 341 345 344 351 358 363 369 372 372 373 371 372 373 373 373 371 367 364 358 357 354 353 353 350 352 352 348 349
327 328 332 337 341 343 347 346 349 354 360 366 370 371 371 371 370 369 371 368 369 369 368 362 357 356 354 353 348 351 351 350 346
327 329 330 334 339 342 344 350 348 349 354 357 364 367 371 370 371 370 368 368 369 369 366 362 357 356 353 351 350 350 348 345 343
328 329 332 335 336 340 346 351 353 352 354 352 357 364 365 370 370 369 367 369 369 369 363 359 354 355 352 349 348 348 349 347 346
327 329 332 338 338 336 346 352 356 357 355 352 355 358 361 367 370 370 368 370 369 366 361 356 353 353 352 348 348 346 346 345 344
327 327 329 338 341 342 352 354 360 359 360 360 358 362 363 367 372 372 372 369 367 363 360 353 353 352 346 346 342 342 347 346 343
325 326 327 336 343 345 350 355 359 362 361 362 364 365 365 369 372 372 369 367 367 361 356 353 351 348 343 343 343 333 334 343 342
326 327 329 329 342 347 353 352 360 361 363 365 365 369 367 371 372 370 365 363 363 358 355 352 350 347 346 345 347 327 329 333 343
328 329 329 332 337 345 349 352 354 361 360 365 367 367 369 371 369 365 362 360 361 360 355 351 347 347 348 347 347 325 325 331 342
331 333 334 335 331 343 351 354 360 364 363 363 365 365 368 367 365 364 361 354 357 358 355 349 348 347 348 346 346 324 323 329 340
327 330 332 332 336 340 348 355 354 361 360 362 363 363 365 366 365 361 357 356 356 357 353 349 345 344 347 337 344 324 320 328 347
333 333 336 339 343 344 357 359 360 360 359 358 361 361 362 363 360 360 359 357 357 351 346 343 344 342 341 343 342 343 317 317 345
337 338 340 342 344 349 354 361 363 362 362 367 366 363 358 359 360 356 354 353 350 348 344 345 344 341 341 347 351 329 316 315 317
339 342 344 345 347 353 356 361 365 361 366 367 364 361 360 359 358 354 353 347 344 341 343 341 341 339 344 344 347 342 314 311 313
342 345 347 350 349 350 355 362 362 362 362 365 361 357 354 351 348 347 348 344 343 342 340 340 340 339 340 340 343 339 334 329 322
340 342 346 348 349 351 351 354 355 357 357 358 354 350 349 346 346 346 340 327 327 341 335 327 341 338 337 334 334 333 317 319 326
342 343 346 348 349 349 350 351 352 355 355 354 351 346 345 341 341 339 340 335 325 300 302 300 301 304 323 324 308 300 298 297 299
335 342 344 346 347 348 348 348 349 351 353 351 349 345 344 342 339 340 339 337 334 328 312 299 297 297 298 304 303 298 297 296 296

GFSFLT1_sfc_thetae_030.txt.gz
Theta_e
334 336 338 340 341 341 347 348 352 354 361 363 366 366 368 368 366 366 364 364 361 355 356 352 357 359 360 358 355 355 352 347 345
328 331 337 339 343 344 345 349 351 354 362 363 366 368 368 368 368 366 363 365 363 364 360 362 356 357 358 356 354 352 352 347 345
329 330 337 338 339 343 345 348 352 355 358 364 367 369 369 367 368 369 366 365 364 359 367 360 358 356 356 354 354 353 353 347 350
329 328 334 338 339 342 345 346 350 352 355 362 365 368 369 368 368 369 367 364 363 364 363 361 356 354 353 353 352 352 350 348 348
330 331 330 333 340 342 343 344 346 349 353 354 363 367 367 368 369 368 367 363 366 367 362 362 356 355 353 352 351 350 349 345 343
330 333 337 338 337 341 344 344 345 346 350 352 359 365 365 367 367 366 365 365 362 365 364 362 356 354 352 351 349 349 348 347 345
331 337 340 340 346 343 344 346 346 347 348 353 355 361 363 364 366 366 365 365 365 365 366 362 356 354 352 351 349 349 347 347 346
333 336 337 341 340 348 354 350 350 350 350 351 354 358 360 363 367 367 367 366 366 366 365 362 358 353 351 349 345 347 346 346 344
330 333 333 341 347 350 354 356 353 351 352 352 354 355 358 362 365 367 367 366 366 364 364 360 357 351 349 347 343 335 335 344 343
331 331 332 337 346 349 353 357 358 354 354 357 354 357 358 361 365 366 366 367 365 363 362 359 353 350 348 344 345 330 330 336 343
333 334 333 338 334 346 352 353 354 362 358 359 358 360 360 363 366 366 367 366 364 363 361 355 350 348 346 344 346 326 326 332 338
330 333 338 340 334 332 350 350 355 358 361 359 360 359 366 366 367 367 366 363 362 360 358 351 348 346 346 345 346 324 322 328 336
326 328 330 337 338 335 337 351 354 358 358 361 358 363 365 369 369 367 364 362 361 362 360 351 346 344 345 339 344 322 319 325 335
327 328 331 334 339 342 359 354 355 358 359 360 362 366 368 368 368 367 366 361 359 357 355 353 347 344 343 345 341 341 317 317 338
336 342 341 341 351 356 362 360 364 361 361 366 368 366 366 366 366 360 360 355 353 351 348 346 344 340 340 342 343 330 316 314 317
337 340 345 347 353 364 366 372 365 361 367 366 366 363 362 360 360 358 355 351 350 343 344 340 339 339 337 338 346 345 317 311 313
341 345 349 353 355 358 361 366 367 366 365 363 361 359 359 358 354 349 348 346 345 342 339 340 340 340 341 344 343 338 333 329 322
345 350 354 355 357 357 360 363 362 363 362 361 358 356 351 348 346 342 328 319 316 339 325 326 341 341 342 340 338 336 326 325 329
345 348 352 352 350 348 352 356 355 356 359 358 353 347 346 343 339 335 329 327 320 301 302 300 300 305 326 315 309 302 301 299 300
332 341 344 347 347 349 350 352 354 357 357 354 348 344 344 342 340 340 337 334 329 320 308 300 298 298 304 307 302 298 298 298 299

GFSFLT1_sfc_thetae_033.txt.gz
Theta_e
326 327 330 330 331 336 340 341 347 351 352 352 355 356 354 354 355 358 353 351 351 346 346 344 346 352 351 349 344 341 340 336 337
324 326 331 332 332 335 340 341 346 349 353 353 355 357 356 355 354 355 358 353 350 351 347 347 346 352 351 348 344 343 340 337 335
324 325 328 334 334 334 341 342 344 349 356 355 357 357 358 358 358 357 356 356 353 351 351 350 347 352 351 348 345 343 340 337 339
326 328 328 332 335 336 340 343 344 346 355 356 357 358 358 358 359 360 358 356 354 353 350 350 349 351 350 347 345 343 341 337 336
326 328 330 330 335 337 337 342 344 346 355 355 358 359 360 359 359 362 360 358 355 355 351 351 350 349 349 347 345 343 342 338 338
326 325 322 328 333 336 338 341 344 345 351 356 358 359 360 360 360 359 361 359 357 356 355 352 349 348 346 346 345 344 343 340 336
323 325 325 324 333 334 337 338 342 344 347 354 358 359 360 359 360 360 361 362 358 356 357 353 348 348 346 346 346 344 343 340 338
320 324 326 324 331 333 336 336 339 343 346 347 355 356 358 358 360 361 361 361 360 356 357 356 349 346 346 346 345 344 341 341 339
320 324 328 329 328 335 336 336 337 340 343 345 347 353 355 358 358 360 360 359 359 358 355 357 352 347 346 344 346 335 337 341 340
320 321 325 329 332 333 336 340 340 339 341 344 346 346 352 355 357 358 359 359 358 358 356 358 353 348 345 342 342 331 333 337 340
321 322 324 325 336 336 338 347 343 343 343 343 345 347 349 353 355 358 359 359 358 358 358 354 351 347 344 341 341 329 326 332 338
315 320 321 326 328 338 342 345 348 345 344 346 344 346 348 353 355 357 359 358 358 358 356 353 348 344 342 340 339 327 323 326 333
319 320 320 323 326 326 340 339 351 347 345 347 345 345 350 352 356 357 359 359 358 355 353 349 345 343 342 336 340 323 321 324 333
323 319 321 320 322 324 327 340 348 350 348 346 351 352 357 358 360 361 360 358 356 355 349 346 343 341 341 341 339 332 317 317 332
330 333 335 333 326 330 333 340 348 347 349 352 353 358 360 360 360 360 356 353 351 350 347 343 340 338 335 337 339 329 316 315 321
330 331 333 337 347 353 355 352 349 349 354 358 359 359 358 358 356 355 351 347 344 342 341 339 335 335 333 334 338 338 318 313 314
340 343 345 348 350 350 352 355 358 357 358 358 357 354 352 349 349 347 346 343 342 340 339 338 336 336 334 332 333 330 323 320 317
343 345 348 349 349 351 352 355 354 355 356 355 352 350 346 343 339 330 320 315 326 334 322 328 338 337 336 333 331 329 322 320 322
341 341 343 344 347 348 350 352 352 352 351 348 345 341 340 334 331 328 324 320 312 301 302 300 302 308 319 312 313 307 306 306 307
331 336 337 338 340 341 342 342 340 347 346 343 342 340 336 333 330 330 326 323 320 313 308 301 298 299 302 306 302 300 299 298 300

GFSFLT1_sfc_thetae_036.txt.gz
Theta_e
327 325 327 329 331 334 336 338 343 346 345 347 349 348 349 351 351 349 346 344 345 346 345 345 349 347 347 341 339 335 334 331 331
325 325 326 328 330 334 336 338 343 346 346 346 350 349 348 348 350 353 352 348 348 344 342 342 347 347 347 343 341 337 335 333 332
325 326 327 328 329 333 337 338 344 346 347 346 349 351 350 349 348 351 354 352 348 347 344 344 344 346 346 344 341 339 337 333 332
326 325 327 329 330 331 336 339 342 347 347 347 348 350 351 350 349 349 351 354 353 349 348 345 343 347 347 345 342 340 336 334 335
325 325 329 330 331 332 332 338 339 345 349 348 349 351 352 352 352 352 350 350 353 353 349 348 345 345 348 346 343 341 338 334 335
323 326 323 329 332 330 331 336 339 343 348 350 351 352 352 353 353 353 352 352 351 354 352 347 346 346 347 345 344 341 340 337 335
322 323 323 321 325 329 333 337 339 341 345 352 352 353 353 352 353 355 355 355 353 352 354 349 346 346 346 346 345 343 341 339 336
323 323 321 325 326 328 333 335 339 341 343 350 353 353 353 353 354 356 357 357 357 355 353 352 349 346 344 344 344 344 341 340 337
320 318 320 321 323 327 333 335 339 341 343 348 352 353 353 355 356 356 356 357 358 356 354 353 348 346 344 342 344 336 336 341 339
316 321 321 323 325 328 334 336 340 341 342 346 351 351 354 355 356 356 356 357 357 356 353 354 348 345 344 343 344 332 333 337 340
316 317 319 322 327 330 334 336 337 341 343 344 346 351 352 354 355 355 357 357 356 356 354 353 349 345 344 344 344 329 328 333 341
317 317 318 320 327 333 334 337 336 337 338 341 343 345 349 352 355 354 356 355 355 356 356 353 352 347 345 344 344 325 325 329 338
314 314 316 323 326 331 332 339 339 336 336 338 340 343 344 350 354 354 355 356 356 357 356 353 351 347 347 339 343 323 320 324 332
318 315 315 317 318 323 335 340 342 337 337 337 340 343 345 346 352 353 356 357 357 356 355 350 348 345 344 340 336 330 319 318 332
328 328 330 324 316 316 317 335 346 341 338 342 343 342 344 346 351 353 355 357 357 355 351 347 343 337 335 337 337 324 315 314 321
333 332 330 341 330 332 338 330 344 344 343 344 347 344 347 349 352 355 357 356 354 351 347 342 338 337 335 335 337 333 316 312 315
340 342 342 344 344 343 343 345 339 343 345 347 350 348 354 356 356 354 355 354 351 346 343 339 337 335 335 334 334 333 325 320 317
339 341 343 344 344 343 344 345 346 350 354 355 354 353 353 351 347 347 334 323 333 341 332 335 337 336 335 333 333 331 322 319 322
335 337 339 341 341 343 344 346 346 349 353 352 348 345 339 335 332 329 325 322 315 305 306 308 305 313 323 319 316 307 304 302 303
329 334 335 337 337 338 340 340 342 341 344 343 342 336 333 330 328 326 324 322 320 315 307 300 300 300 303 308 305 302 301 300 301

GFSFLT1_sfc_thetae_039.txt.gz
Theta_e
323 325 328 329 330 331 333 337 339 341 341 342 347 348 348 347 347 345 344 342 343 343 344 346 349 349 347 342 338 335 332 331 329
322 324 326 328 330 330 333 335 338 341 342 343 345 348 348 347 347 345 344 342 342 344 345 346 346 347 346 342 337 333 332 330 329
323 325 325 327 329 330 332 335 337 340 343 343 345 347 348 348 347 347 346 344 344 343 343 342 345 345 345 343 338 334 332 330 329
324 325 327 326 328 330 332 335 337 340 342 343 344 346 347 347 348 349 350 349 347 345 343 341 342 344 344 343 339 336 334 331 331
324 327 328 328 327 329 330 333 336 340 342 343 344 347 347 346 346 347 349 350 350 348 344 342 341 343 344 343 341 339 336 333 334
320 326 325 327 327 327 328 332 336 339 342 344 345 346 347 347 346 346 346 347 350 351 349 346 343 342 344 343 342 339 338 336 335
318 322 324 326 326 327 328 331 336 337 342 344 345 345 346 346 347 347 346 346 347 350 351 347 346 343 343 345 344 342 340 338 335
319 320 322 325 326 327 326 328 334 337 341 345 346 345 346 346 348 349 349 348 346 347 349 350 347 345 343 345 344 344 341 339 337
317 319 323 323 324 328 329 330 333 337 338 343 347 346 346 348 348 350 350 350 350 348 348 348 348 345 344 344 344 337 335 340 339
316 320 322 320 320 324 327 331 334 335 338 342 347 347 348 349 349 349 351 352 352 351 349 349 347 346 344 343 344 331 332 336 341
313 317 319 319 321 321 322 328 333 337 339 339 345 347 348 350 350 350 351 352 352 353 353 350 349 346 345 343 343 328 327 334 341
314 316 317 322 324 325 324 326 332 335 336 339 343 345 347 350 351 351 351 351 352 353 355 353 352 348 344 343 343 325 325 330 340
314 315 315 318 323 327 328 329 334 336 337 339 340 345 347 350 352 352 352 353 353 354 355 354 353 349 345 339 344 323 320 332 339
311 312 314 316 321 327 331 331 332 333 336 337 341 344 348 349 351 353 354 354 355 355 355 354 352 349 347 346 344 326 318 323 336
322 320 314 313 314 322 327 334 333 331 331 337 340 342 342 345 349 352 353 353 354 355 355 353 350 348 345 343 339 322 317 317 325
325 325 332 327 312 312 313 326 335 332 334 336 336 338 339 341 344 350 352 352 353 354 354 352 348 344 339 338 338 332 317 313 317
335 337 339 339 338 338 338 342 332 334 336 336 334 334 335 338 341 344 349 353 354 354 353 349 344 340 337 336 334 331 323 321 320
338 340 341 342 341 340 341 344 344 345 343 340 339 339 337 340 343 343 319 312 311 332 333 341 341 338 337 335 334 334 322 319 323
334 335 337 339 341 342 342 342 341 343 346 347 347 346 345 340 329 327 324 326 324 309 310 314 310 312 321 330 316 310 307 304 304
326 333 334 334 336 339 339 338 338 340 341 340 336 333 330 329 327 328 329 332 329 322 316 311 306 303 304 307 309 302 301 301 303

GFSFLT1_sfc_thetae_042.txt.gz
Theta_e
325 327 331 332 333 333 333 337 340 340 341 341 344 345 345 346 347 346 346 345 345 345 346 349 352 351 351 348 346 344 339 335 333
321 323 327 330 332 333 333 335 338 339 340 341 343 345 346 347 347 347 346 346 345 345 348 349 350 351 351 348 346 342 339 335 334
321 322 323 328 331 332 333 334 338 340 341 341 343 346 346 347 347 348 347 347 344 344 346 348 348 350 350 348 345 341 338 336 335
320 322 323 326 329 332 333 334 336 338 340 341 342 346 347 347 347 348 348 346 345 345 346 346 347 348 348 347 344 341 337 336 335
319 323 324 326 328 330 331 331 333 336 339 341 342 344 347 347 348 348 347 347 347 347 345 345 345 347 348 347 345 342 339 336 336
317 321 324 326 326 327 329 330 332 335 337 340 343 344 345 346 347 347 347 347 349 348 347 345 344 346 346 346 345 343 341 340 338
314 318 322 325 326 326 328 330 332 334 337 340 342 343 344 344 346 347 347 349 350 350 349 346 344 344 346 346 346 345 343 341 339
318 319 321 322 325 325 326 328 332 335 337 341 343 343 343 344 346 346 347 347 349 350 351 350 347 345 344 345 345 344 343 343 341
315 318 321 322 325 326 327 327 331 335 337 340 343 343 342 345 346 347 346 346 346 347 349 351 349 348 346 344 345 337 335 341 342
311 317 320 321 323 325 328 327 331 334 336 341 342 343 344 345 346 346 347 347 346 345 345 349 349 349 348 345 346 332 332 336 343
306 311 319 321 323 324 327 330 330 334 337 339 343 343 343 345 346 346 348 348 347 347 347 346 346 348 348 348 347 329 328 334 345
308 310 316 321 324 325 326 327 332 333 335 338 341 343 344 346 347 346 347 348 348 349 349 348 347 348 348 346 346 325 325 330 343
310 312 315 317 320 323 322 324 326 331 334 336 338 344 345 348 349 348 347 348 349 351 352 351 351 350 349 342 347 323 321 330 342
312 313 314 316 319 324 326 327 331 332 334 336 339 343 347 349 350 350 351 350 351 352 352 353 352 351 351 348 345 340 318 323 342
313 313 315 316 319 321 325 331 333 333 334 338 342 343 345 347 350 351 352 352 352 352 352 352 352 351 349 347 347 326 315 319 325
325 332 333 320 313 327 334 331 334 330 333 337 338 341 342 347 351 351 353 352 352 352 353 351 350 349 347 346 346 328 316 315 319
339 340 340 342 341 340 340 344 341 337 339 339 336 336 337 340 342 346 351 353 354 353 352 351 350 348 346 342 338 333 325 326 326
336 338 339 340 340 341 340 343 345 348 347 342 339 337 336 339 340 327 322 318 322 330 323 340 339 339 338 334 332 325 315 318 329
333 333 337 337 338 339 340 341 342 345 348 347 346 342 340 333 328 327 329 325 321 307 310 308 308 311 322 326 316 308 309 306 306
326 330 332 332 333 333 333 335 338 340 340 340 336 332 330 329 328 331 331 331 326 321 316 306 308 309 311 312 307 312 307 301 303

GFSFLT1_sfc_thetae_045.txt.gz
Theta_e
333 335 337 339 343 343 343 346 348 350 351 352 354 355 356 358 359 356 356 357 354 353 353 354 362 361 363 363 362 361 359 353 350
330 333 336 337 339 342 343 344 348 350 351 352 354 355 356 357 358 358 356 360 361 355 361 356 359 361 361 362 362 361 359 353 350
328 332 334 336 340 342 344 344 347 351 352 352 354 355 356 355 356 358 359 360 359 360 362 360 359 361 362 363 362 360 358 355 353
326 328 330 333 338 343 345 346 344 348 350 352 353 354 355 356 356 357 359 358 359 360 362 362 361 361 361 361 360 360 357 356 352
325 328 330 332 333 338 341 344 344 345 348 349 351 353 355 355 357 358 357 358 359 361 360 362 362 362 360 360 360 359 356 354 351
324 328 331 333 333 336 340 342 343 344 346 347 349 353 353 355 356 356 356 357 359 360 360 360 360 361 360 359 359 358 357 355 353
321 327 331 334 335 336 340 342 343 344 345 347 349 351 351 352 353 355 356 357 359 359 360 359 360 360 360 361 360 358 356 355 353
320 323 328 332 335 338 341 342 344 345 345 348 349 351 351 352 355 357 357 358 358 359 360 359 359 358 359 360 359 355 357 355 354
321 322 326 332 336 339 341 341 343 344 345 347 350 351 350 353 355 357 357 357 358 359 359 360 360 358 357 357 354 340 339 352 354
321 323 328 332 335 339 343 341 343 343 345 349 350 351 352 354 355 355 356 357 358 358 358 360 359 359 358 356 357 333 333 338 356
322 324 325 328 330 335 340 340 339 345 346 349 350 351 353 355 355 355 356 356 356 357 357 357 359 359 359 357 356 330 329 335 353
323 326 328 328 327 331 341 342 343 345 346 348 350 350 352 354 354 355 356 355 355 356 356 356 356 359 360 358 358 328 326 333 350
321 322 324 326 329 330 334 341 340 344 345 348 348 350 352 355 356 355 355 356 356 358 357 356 354 356 359 350 359 328 323 332 350
324 326 327 329 329 331 339 339 343 345 346 346 349 353 355 356 357 357 356 358 359 359 358 358 358 357 358 359 355 354 319 321 351
322 325 325 325 328 331 335 340 343 344 347 350 354 355 353 357 359 355 355 358 354 359 355 350 358 359 356 355 356 331 317 318 326
327 338 336 326 330 337 341 344 344 347 352 351 351 351 354 356 357 357 360 359 358 355 356 351 352 354 353 351 349 349 318 315 317
343 346 341 340 348 346 346 348 348 349 349 353 355 353 354 356 355 356 358 357 357 355 355 356 354 354 352 351 348 342 329 322 323
341 341 342 345 346 346 348 352 354 356 352 352 350 350 351 352 353 352 345 335 341 359 363 352 357 356 350 336 327 323 319 323 331
340 340 342 342 342 342 345 350 352 350 355 355 352 348 346 339 337 337 333 330 324 308 309 310 310 310 323 326 311 304 307 307 306
327 334 334 335 335 338 342 346 343 346 348 347 343 339 336 333 335 333 331 333 331 324 318 304 305 308 308 311 312 307 308 308 305

GFSFLT1_sfc_thetae_048.txt.gz
Theta_e
336 339 341 342 344 345 345 346 353 356 361 363 362 362 366 368 369 358 358 363 357 356 355 355 362 362 365 367 366 367 367 363 360
328 334 340 342 344 346 347 349 353 359 362 365 365 362 368 368 367 367 360 367 369 360 367 358 361 362 364 365 366 367 368 362 361
327 330 336 341 344 346 348 350 352 357 362 365 365 364 365 363 366 368 368 369 368 369 368 368 362 362 362 364 366 367 368 364 363
326 329 334 340 343 345 348 350 350 353 357 361 361 363 365 366 365 364 366 365 369 370 371 372 367 367 363 362 365 367 367 366 363
326 330 332 338 341 344 345 347 349 350 352 354 357 362 365 365 367 367 365 366 368 370 370 373 372 369 367 364 364 368 366 363 361
326 328 331 334 335 338 341 345 352 349 350 352 354 360 358 362 365 365 366 368 368 369 370 371 369 371 370 367 366 366 365 365 362
323 327 330 333 334 336 338 344 354 356 351 351 353 355 356 361 364 365 366 367 368 368 370 370 371 371 372 370 368 367 364 363 363
322 325 327 331 336 338 342 345 353 357 355 356 355 358 358 360 365 367 368 368 369 370 370 370 371 370 371 370 367 361 366 366 365
320 322 323 327 334 338 343 345 348 352 355 354 357 360 359 363 365 368 367 368 369 369 369 370 370 369 369 368 362 344 339 358 364
321 323 325 327 332 338 342 346 349 351 355 355 357 359 362 364 365 366 367 366 368 368 368 368 368 368 368 367 369 336 334 341 363
322 323 325 329 329 332 340 343 343 351 351 357 358 359 361 364 365 365 366 367 367 368 368 367 368 368 368 368 367 335 330 336 360
324 326 327 329 329 329 333 336 341 347 350 351 353 358 360 362 364 365 365 365 366 368 365 365 364 365 368 369 367 329 326 334 357
325 326 327 327 329 330 331 334 338 345 349 353 356 358 360 363 365 365 365 366 366 367 366 361 360 360 365 353 366 337 322 330 352
332 332 331 332 332 332 338 338 343 350 349 351 358 356 357 363 367 367 368 368 368 366 364 363 364 361 365 364 361 362 323 319 346
334 333 334 332 333 333 337 344 347 357 356 359 362 362 358 364 367 360 358 367 363 365 365 363 362 361 353 355 357 336 329 316 327
337 338 337 334 337 336 341 346 351 352 362 364 360 360 363 365 366 361 364 365 363 358 362 357 356 355 354 353 354 350 316 314 318
339 341 337 341 338 339 346 352 354 355 356 361 360 360 359 360 361 361 362 359 359 357 356 356 354 353 351 347 344 356 357 344 327
341 341 349 347 347 351 353 356 357 356 356 358 355 356 357 358 358 359 360 353 351 359 364 351 357 357 357 354 356 356 330 330 330
344 344 347 349 350 355 360 358 353 360 359 358 358 357 356 355 356 358 358 352 342 308 305 303 304 311 337 350 317 306 305 305 307
329 337 338 340 342 344 347 347 347 351 356 361 359 355 352 350 345 348 349 351 352 343 319 305 301 300 302 307 307 302 303 303 305

GFSFLT1_sfc_thetae_054.txt.gz
Theta_e
332 335 340 342 343 341 342 343 347 349 355 358 361 361 364 363 362 362 354 356 356 353 358 357 366 364 364 367 368 366 370 368 365
331 333 338 341 344 343 342 344 346 348 353 357 360 362 364 365 362 360 361 356 360 362 361 358 376 366 365 367 369 368 366 365 364
329 333 337 340 343 344 343 344 347 349 353 356 361 363 364 364 366 361 360 364 357 357 364 373 375 367 367 366 366 368 366 365 366
327 332 335 339 342 346 345 345 346 348 349 357 360 363 365 364 365 366 363 359 362 360 363 364 367 372 366 364 365 365 366 365 364
327 330 335 339 343 345 346 346 346 348 350 352 360 364 365 364 366 366 365 362 362 364 364 370 366 368 368 364 363 364 365 363 360
330 332 338 340 340 342 346 347 348 348 351 352 357 362 364 364 365 365 365 365 363 365 365 365 369 369 365 364 363 362 364 364 365
328 334 335 338 340 340 345 349 350 350 351 353 355 359 363 363 364 365 366 367 367 365 365 367 365 367 367 365 365 363 363 364 364
330 333 333 340 337 340 346 350 352 353 353 354 354 356 359 362 365 367 367 367 366 367 367 365 368 367 367 367 366 364 362 362 364
327 328 330 334 340 345 350 349 353 354 354 356 356 357 357 362 364 365 366 366 366 367 367 367 367 367 367 366 366 349 344 357 361
324 325 332 333 337 346 354 353 356 356 357 358 359 358 361 362 364 364 365 367 367 366 366 367 366 367 367 366 367 341 338 343 362
323 326 330 333 330 336 341 340 341 356 357 364 359 360 362 364 365 364 366 366 367 367 367 366 366 366 367 367 367 341 334 337 358
327 332 334 335 331 331 344 340 342 354 353 357 363 360 362 361 364 365 365 365 366 367 367 367 366 368 367 367 366 335 332 334 353
334 336 339 340 340 339 341 343 341 355 352 358 358 360 361 364 364 364 365 365 367 368 369 367 368 367 368 357 367 339 328 334 360
333 336 339 344 344 341 345 351 352 361 363 356 360 362 364 364 364 365 366 368 368 368 368 367 366 366 367 368 365 364 324 323 360
331 336 338 343 345 346 348 351 353 358 360 365 367 368 364 364 367 362 365 367 368 369 368 366 365 365 364 366 369 340 327 320 325
331 335 338 346 348 351 352 356 364 361 362 372 381 368 367 366 366 367 364 367 366 366 368 365 363 361 363 362 364 367 328 319 319
329 333 335 346 352 349 353 356 356 366 371 375 373 374 369 369 367 366 367 366 367 366 364 363 361 360 359 360 362 360 365 348 333
325 332 335 346 350 352 355 361 363 363 368 368 362 370 368 368 366 365 367 349 335 358 354 340 362 360 361 359 357 356 338 347 352
323 332 334 343 347 351 357 362 366 369 373 371 364 364 364 362 361 364 363 340 336 305 304 301 301 307 341 339 314 310 308 308 315
325 331 336 340 347 350 356 358 359 361 366 370 367 364 361 358 352 359 359 353 346 333 316 302 300 299 304 308 302 301 300 300 300

GFSFLT1_sfc_thetae_057.txt.gz
Theta_e
334 334 335 334 334 336 337 339 343 346 348 347 350 353 350 347 350 350 346 347 345 343 348 352 355 357 359 357 356 356 356 353 355
331 333 335 335 335 336 336 338 341 344 347 348 350 351 353 352 348 352 349 344 348 350 346 352 355 356 355 359 357 355 353 357 354
326 332 335 336 336 335 337 338 341 343 348 349 351 351 353 354 354 350 353 350 346 346 348 352 352 356 356 358 359 358 354 355 357
325 328 335 336 337 336 338 338 340 342 344 350 351 354 352 355 357 356 351 353 352 348 347 350 359 359 357 357 357 358 356 352 354
320 328 336 337 338 337 337 337 338 340 344 348 352 353 355 353 356 359 355 350 351 351 349 352 352 360 359 358 357 356 356 355 356
318 324 333 337 338 336 336 336 337 340 342 347 350 353 354 356 356 356 358 356 353 353 353 353 356 353 359 358 357 357 356 357 356
322 321 330 335 337 337 337 337 338 339 341 344 350 352 355 355 357 357 358 359 358 354 356 355 358 358 355 358 357 357 357 358 357
322 324 329 332 335 338 339 338 338 340 341 343 345 353 354 355 357 359 359 358 360 359 355 358 356 356 359 359 359 358 356 356 357
318 322 324 326 329 336 338 340 340 341 341 344 346 345 353 355 358 358 359 359 359 360 359 356 357 358 356 359 360 346 343 353 356
319 322 322 321 325 328 337 341 343 343 344 345 346 347 348 353 356 357 358 360 360 359 359 360 358 357 360 359 360 340 338 342 356
317 319 319 321 320 322 328 338 347 347 347 348 347 347 349 350 355 357 358 358 358 359 360 359 359 359 359 360 361 340 334 338 356
328 329 331 330 331 332 333 333 332 348 347 349 350 350 350 352 355 356 357 357 358 360 359 359 359 360 360 360 361 334 332 334 353
329 332 334 337 337 333 332 335 338 341 346 350 348 349 353 357 356 357 356 358 358 361 361 359 360 359 361 352 360 337 328 333 355
331 330 332 338 340 339 337 337 336 337 334 341 350 352 353 355 357 357 359 359 360 360 361 361 360 360 360 362 358 358 326 324 356
326 327 329 331 336 341 346 341 337 332 340 340 344 354 354 353 354 357 360 360 360 361 361 360 359 359 359 362 362 337 330 321 325
317 324 326 329 332 342 347 348 340 339 340 346 351 355 353 354 355 356 353 359 359 359 360 360 359 358 358 358 360 361 326 318 320
313 316 323 328 326 335 340 347 350 349 341 351 353 350 356 355 354 355 353 358 360 360 360 360 358 358 357 357 357 359 359 340 328
311 313 321 326 325 328 337 343 354 358 352 350 346 346 358 357 357 353 354 327 322 351 344 342 359 359 357 355 354 354 338 343 341
311 310 313 325 327 333 338 342 350 355 357 358 356 347 351 356 355 356 344 327 322 303 302 300 300 314 342 326 316 305 305 308 313
311 312 312 324 325 331 338 342 346 352 352 352 353 355 348 353 349 354 342 337 333 328 314 303 299 299 301 312 306 301 302 303 304

GFSFLT1_sfc_thetae_063.txt.gz
Theta_e
327 329 331 332 334 337 338 339 340 339 339 340 343 343 344 344 343 341 341 340 337 337 338 343 346 350 352 350 350 349 348 345 345
323 326 330 332 334 336 337 339 340 339 339 341 343 343 345 345 344 343 342 339 339 338 339 345 347 349 351 351 351 350 349 347 345
323 325 329 332 333 334 336 338 340 341 339 341 343 345 345 345 345 344 344 341 338 337 339 342 347 348 349 352 352 351 349 348 347
323 325 327 332 332 334 336 337 339 340 340 339 341 344 345 345 345 345 345 342 342 342 341 340 342 347 348 349 352 351 349 348 350
320 327 328 332 332 333 335 335 337 339 340 340 340 343 344 344 344 344 346 347 343 342 342 343 344 344 348 349 350 352 350 348 350
323 326 328 331 332 333 334 335 336 338 340 341 341 341 343 344 344 343 342 343 348 347 343 342 341 347 348 348 349 350 352 351 349
312 326 328 331 333 333 333 335 336 338 340 342 342 342 342 342 344 345 346 344 343 346 349 346 343 342 346 351 351 351 351 353 351
310 316 328 331 332 333 333 334 335 337 339 341 343 342 342 342 344 346 347 348 347 345 346 348 348 346 344 350 352 353 352 351 352
311 321 329 331 333 333 333 334 335 336 337 340 343 342 342 344 344 345 348 350 350 349 346 345 348 347 347 346 350 341 340 349 351
315 323 329 331 333 333 333 334 335 335 336 339 342 343 344 345 346 346 346 349 351 352 349 348 345 346 347 346 348 335 335 340 352
326 323 324 329 334 334 335 335 335 336 336 337 339 342 344 346 346 347 349 348 349 350 353 352 350 347 348 348 349 334 332 336 349
323 330 335 332 327 329 330 333 335 334 334 336 338 340 342 345 347 346 348 350 350 351 351 353 353 352 350 349 351 329 329 332 348
320 322 331 339 340 333 330 329 335 333 334 335 335 338 343 345 346 347 348 349 351 353 353 353 354 354 355 345 351 332 326 330 349
315 323 321 327 337 339 340 336 335 334 334 335 337 337 338 340 347 348 350 351 352 353 353 354 354 354 355 356 352 352 323 322 350
309 313 322 322 325 332 338 344 349 344 339 336 343 343 341 342 343 347 351 351 352 353 353 352 353 352 353 356 356 333 325 321 324
307 308 313 323 319 321 331 337 346 346 346 338 336 343 344 344 345 346 346 348 350 351 352 351 351 352 351 352 355 356 323 319 319
305 307 308 319 321 318 321 331 337 343 347 347 346 343 341 344 344 345 347 350 350 350 351 351 351 351 351 353 353 354 351 337 332
305 306 308 309 317 319 320 325 330 335 344 345 342 342 343 343 345 343 344 345 341 350 352 345 352 353 353 352 352 353 341 342 349
305 304 306 306 308 316 321 323 324 328 335 340 338 337 338 339 340 344 344 337 326 304 304 303 303 306 328 350 328 320 315 312 312
306 304 305 306 306 313 320 323 324 325 328 332 333 334 334 337 335 341 341 334 334 333 314 301 299 298 301 303 319 307 306 305 304

GFSFLT1_sfc_thetae_066.txt.gz
Theta_e
327 331 335 335 336 336 336 338 338 339 339 339 341 341 342 343 342 341 342 342 341 341 339 342 347 350 354 354 354 353 353 350 349
325 328 332 335 337 338 337 338 338 338 338 339 341 342 343 343 343 342 342 342 343 342 342 344 346 349 352 354 353 354 353 351 350
323 327 330 332 335 337 339 339 340 340 340 339 341 343 343 344 344 344 344 342 341 342 342 344 347 349 350 353 354 354 353 352 352
323 325 327 330 333 336 338 340 340 340 339 339 340 342 343 344 344 345 345 343 342 342 343 342 344 348 350 351 353 354 353 353 353
324 325 326 329 332 335 335 337 339 340 340 340 341 343 343 344 345 346 344 344 344 344 342 342 344 346 349 350 352 354 353 352 353
316 324 326 327 330 332 334 335 338 339 340 339 341 343 344 344 344 344 344 345 344 344 344 344 345 344 345 347 350 352 354 354 353
309 320 324 326 329 332 333 335 337 339 340 341 340 341 343 343 344 344 345 346 348 346 345 344 344 346 348 349 350 351 352 354 353
311 310 323 326 328 331 333 334 336 338 340 341 341 340 341 342 344 345 345 344 345 349 349 346 346 344 345 347 349 351 352 353 354
322 315 313 326 329 332 332 334 335 337 339 340 342 340 340 342 344 345 345 345 345 344 345 349 349 347 347 345 346 339 337 347 352
320 325 326 315 328 332 333 334 336 336 339 341 341 341 341 342 343 344 345 347 347 346 344 345 346 348 348 347 347 333 333 338 352
317 323 331 326 330 333 335 335 336 337 339 340 341 341 342 343 343 343 345 346 348 349 349 347 345 346 348 348 348 331 330 334 349
318 321 324 335 331 332 334 335 336 336 337 339 340 341 342 344 345 345 345 345 347 350 352 351 350 349 347 347 348 329 328 331 346
314 321 322 336 335 331 331 333 336 334 334 336 337 341 343 346 347 347 347 348 347 349 351 352 354 353 353 344 350 331 324 330 349
311 318 322 326 337 339 342 334 335 333 333 334 338 341 344 346 347 347 348 349 351 351 351 352 352 353 355 355 350 350 323 321 347
308 309 319 322 323 331 340 347 338 333 334 338 340 341 343 344 346 347 348 349 350 352 352 351 352 353 353 356 358 332 326 319 322
307 308 310 320 322 323 327 336 348 345 344 342 344 340 340 341 344 348 350 349 350 350 352 351 351 352 352 354 357 358 323 318 319
305 307 308 312 319 322 323 326 331 340 345 347 345 344 346 347 346 345 347 350 352 351 351 351 352 352 352 353 355 356 358 343 333
307 306 307 308 312 318 322 325 326 330 337 340 341 342 344 347 348 346 349 349 346 351 354 346 352 352 353 353 353 354 341 343 352
306 305 306 307 309 314 319 322 323 327 331 334 336 338 339 339 344 348 348 345 337 305 307 304 304 307 328 354 329 321 312 312 312
306 307 306 308 309 313 316 317 318 323 328 331 332 334 337 338 335 342 345 344 340 337 321 302 301 302 302 302 316 309 309 308 302

GFSFLT1_sfc_thetae_072.txt.gz
Theta_e
338 340 342 344 345 345 346 348 349 351 357 359 357 357 360 363 364 354 355 358 354 353 351 351 358 361 363 365 364 365 367 365 360
332 337 340 342 345 347 347 348 351 354 358 361 361 355 362 363 364 362 356 366 361 356 360 354 357 359 361 361 363 365 367 361 363
328 333 338 341 344 346 348 349 350 352 356 359 358 357 358 357 360 361 362 360 361 362 359 360 358 358 357 359 362 364 366 362 364
326 328 332 339 343 346 349 350 351 351 352 354 355 358 360 362 358 358 359 357 359 361 362 362 363 360 359 357 359 363 365 364 362
326 329 333 337 342 347 348 349 350 351 352 352 354 359 362 360 361 363 357 358 359 361 362 364 363 363 362 360 359 363 364 362 359
323 326 331 337 339 344 347 349 352 351 352 351 352 356 355 357 358 358 361 361 361 361 362 362 363 363 361 361 358 358 361 362 361
326 326 328 335 339 342 348 351 355 355 351 352 351 352 353 358 361 362 360 364 365 361 364 362 362 364 363 362 360 358 357 358 361
327 330 331 331 337 341 345 350 355 356 352 356 354 356 353 359 364 365 366 366 365 364 363 362 363 363 362 362 360 355 359 357 356
327 330 332 336 338 337 341 346 351 355 356 356 358 359 357 362 365 366 365 366 365 365 363 364 363 362 362 360 356 340 337 350 355
327 329 333 336 338 341 341 343 349 354 357 358 359 361 361 363 365 365 366 364 366 366 365 364 364 362 363 362 363 335 333 338 355
323 326 330 335 338 340 343 344 345 351 353 359 361 361 362 363 364 364 365 366 366 367 365 366 366 362 364 362 363 335 331 334 356
322 323 326 334 339 341 345 347 346 350 351 354 357 359 361 363 364 364 364 363 365 364 364 363 363 364 365 366 365 330 329 336 355
318 320 324 334 341 345 349 351 347 347 350 356 358 359 360 364 364 365 364 365 366 366 363 360 359 360 363 352 366 336 324 335 355
315 316 317 331 342 346 352 350 348 353 352 354 358 357 357 361 363 366 366 367 367 367 364 364 365 364 365 365 361 361 322 321 358
314 314 315 321 334 341 353 350 351 358 356 357 361 361 358 362 364 359 358 366 364 364 365 364 365 363 360 361 366 338 327 319 324
312 316 315 317 324 338 346 355 352 352 358 361 359 360 361 361 361 360 364 364 362 359 362 358 358 357 357 357 360 365 326 317 318
311 314 315 318 318 324 330 341 349 353 355 358 358 357 358 359 359 358 360 359 360 358 357 356 355 355 355 357 358 361 364 357 341
311 313 317 318 318 319 320 327 333 342 353 357 354 356 356 357 357 358 359 360 358 357 363 353 357 356 358 357 358 359 346 349 366
311 312 317 318 320 320 320 323 327 331 338 351 357 355 353 352 352 355 355 355 356 316 317 312 312 313 332 358 333 321 315 318 316
310 315 316 318 321 322 324 324 323 325 328 333 344 348 353 355 351 355 354 355 358 356 335 310 309 310 309 311 315 311 306 303 303

GFSFLT1_sfc_thetae_075.txt.gz
Theta_e
339 340 342 343 345 346 347 349 354 355 358 360 362 360 360 361 366 353 352 362 353 350 349 351 372 365 364 364 366 363 368 362 360
335 340 342 344 345 346 347 351 356 357 359 361 362 360 361 362 363 361 355 366 368 357 365 353 357 358 364 364 364 367 373 360 362
333 339 340 342 345 347 348 349 352 358 360 362 363 360 363 361 362 364 365 368 370 366 367 366 360 360 359 362 365 366 373 365 369
330 333 337 340 343 347 349 350 350 352 357 361 362 361 362 362 362 361 364 362 367 367 369 370 368 365 362 361 362 366 371 371 368
329 331 334 337 341 345 348 349 350 351 352 353 358 361 362 362 364 364 363 363 363 368 368 371 371 369 367 363 362 367 367 361 361
327 329 331 333 338 343 346 349 353 352 352 352 354 359 359 362 364 364 364 365 365 366 368 370 368 370 370 367 364 365 367 367 364
330 331 330 334 337 341 347 351 357 358 354 353 354 354 356 360 364 365 364 366 367 368 370 370 370 371 371 370 367 364 361 364 367
328 329 333 332 336 339 346 350 359 359 356 359 357 359 357 360 366 367 367 366 368 369 370 370 371 371 371 369 365 359 363 363 364
328 330 333 336 338 340 343 348 352 359 359 360 361 361 358 362 366 368 367 367 368 369 370 370 371 371 370 368 359 342 339 355 360
327 329 332 336 339 342 344 343 351 355 361 360 361 364 362 363 366 367 368 368 369 369 370 370 370 370 370 369 370 336 334 339 360
324 327 329 331 336 341 344 344 344 352 355 363 363 363 365 364 366 367 369 370 369 371 370 370 370 370 371 371 368 335 331 335 360
323 325 328 330 333 339 345 347 348 349 355 359 362 363 365 365 366 367 369 368 369 371 370 371 370 372 372 371 370 332 328 336 357
322 324 327 329 333 341 344 348 351 349 348 358 361 362 365 368 368 368 369 370 370 371 371 370 364 367 372 359 372 337 326 336 356
321 323 323 328 332 339 348 352 357 356 353 355 362 362 366 370 370 371 372 373 373 373 370 366 369 369 372 373 367 368 325 322 362
319 320 321 326 326 333 340 354 360 361 358 362 368 367 366 368 371 366 366 372 372 372 372 370 370 368 367 363 372 341 325 320 325
317 317 318 321 323 328 328 338 354 356 368 369 368 368 367 368 369 368 369 370 370 365 370 360 360 359 357 356 357 364 327 318 319
316 315 315 318 321 324 324 330 333 341 345 362 365 367 367 367 366 366 367 364 363 360 358 358 356 356 355 355 355 356 363 353 337
314 312 315 319 320 320 322 325 325 328 331 335 359 359 360 363 361 361 363 363 360 359 363 351 357 354 355 355 356 357 345 348 362
312 312 316 318 321 321 321 322 321 324 328 327 344 355 356 356 357 359 359 358 355 316 323 313 313 314 334 357 322 315 315 315 311
310 313 315 319 320 320 321 322 321 323 324 325 328 338 346 358 351 358 356 358 357 354 335 313 315 314 313 311 312 311 311 307 306

GFSFLT1_sfc_thetae_078.txt.gz
Theta_e
339 340 337 341 344 346 347 348 347 348 352 352 354 356 351 355 362 354 356 363 354 359 353 355 363 365 367 370 368 368 368 366 366
334 332 341 342 345 346 348 349 350 348 352 353 355 353 355 352 360 361 353 364 369 356 363 362 363 365 367 367 368 367 369 363 364
330 331 336 343 343 346 349 350 352 352 354 355 356 354 355 353 352 358 359 354 365 364 370 370 365 365 365 366 369 369 369 363 366
329 333 336 339 345 347 349 351 351 353 353 355 357 357 355 354 354 354 354 358 359 362 364 370 369 369 367 365 365 368 368 365 365
330 332 336 334 342 347 348 349 351 353 354 355 357 359 357 354 355 354 353 351 362 363 367 372 374 368 370 364 364 365 365 362 358
331 334 334 335 339 344 345 349 350 352 353 354 357 360 357 356 356 356 354 352 357 363 360 364 365 369 364 365 363 362 364 364 361
330 335 336 338 336 343 343 350 351 352 352 354 355 358 358 356 356 357 356 358 355 357 363 362 364 364 366 366 364 362 360 363 363
329 331 336 338 340 340 340 351 353 355 354 354 355 355 356 357 359 359 360 360 361 359 359 361 364 364 365 366 365 362 361 360 361
329 331 333 337 340 343 342 346 354 355 356 355 356 355 355 358 360 360 360 360 361 361 360 362 364 363 364 365 364 346 341 354 356
324 327 329 331 333 337 344 342 348 357 358 359 359 359 358 358 360 360 360 362 361 361 361 362 363 363 364 364 365 340 336 341 357
323 323 325 327 329 332 337 342 346 350 361 359 361 359 361 360 359 360 362 361 361 361 362 362 361 363 364 364 365 340 332 336 354
321 322 325 326 330 332 336 341 345 350 351 359 357 358 361 361 359 360 361 361 361 361 361 362 362 363 364 364 364 335 332 334 350
321 322 324 324 329 332 337 344 348 352 354 352 359 357 361 365 362 361 361 363 362 363 364 362 363 363 365 356 366 338 328 333 355
320 321 321 323 328 328 331 334 340 345 359 359 356 363 361 364 366 362 364 365 365 365 364 364 364 364 365 368 364 363 326 322 356
317 319 318 321 323 326 330 331 332 335 344 343 365 366 363 364 365 364 364 365 366 366 365 364 363 363 363 365 368 341 328 320 325
315 318 317 319 321 325 329 328 327 326 332 337 342 364 364 363 366 366 364 364 364 364 365 363 361 361 361 361 365 367 328 320 320
314 317 316 318 320 321 323 325 322 324 328 334 338 365 366 365 365 364 365 364 364 364 363 362 360 358 359 360 360 360 364 345 333
314 315 316 318 319 321 321 323 321 322 327 331 335 356 365 365 364 362 364 362 364 364 365 360 361 360 359 358 356 356 344 349 354
314 314 316 317 320 322 320 322 320 320 322 324 326 338 344 358 359 360 360 360 358 316 327 318 318 325 341 343 320 308 306 306 321
314 314 316 319 320 320 320 320 318 318 320 323 324 327 327 333 337 355 358 358 356 354 335 311 307 311 317 327 318 307 305 306 308

GFSFLT1_sfc_thetae_081.txt.gz
Theta_e
327 333 337 337 338 338 339 339 342 344 343 347 345 343 343 346 348 345 347 351 348 349 349 349 350 358 357 355 356 354 356 352 354
329 335 333 337 339 339 340 340 340 344 343 344 346 346 342 344 351 344 345 347 349 348 348 350 350 356 357 357 355 355 355 352 353
332 336 335 337 336 340 341 342 341 344 345 344 347 347 345 343 346 351 348 346 352 349 345 349 353 354 358 355 356 353 355 352 354
332 333 336 338 339 338 334 343 343 342 346 345 346 345 348 343 343 350 349 347 343 352 350 356 357 356 355 355 355 356 354 351 353
329 332 333 334 336 335 334 333 344 342 347 346 347 347 347 347 343 346 349 346 346 352 349 352 356 356 356 355 353 353 354 353 352
329 329 329 330 332 334 333 333 344 345 345 347 349 349 347 347 346 342 345 346 344 349 355 356 358 355 354 352 352 352 353 354 353
328 328 328 328 331 330 333 337 343 345 345 349 350 350 349 347 346 347 344 344 343 348 352 352 355 357 354 356 353 353 352 355 354
325 328 330 332 334 334 336 340 341 345 347 348 351 351 350 349 348 348 349 346 346 341 353 352 352 354 355 356 357 357 352 352 354
318 320 323 324 329 335 338 341 342 343 346 348 351 351 351 351 351 350 349 350 349 346 343 351 354 354 355 355 359 346 343 350 351
316 318 321 320 323 327 330 337 339 334 336 340 349 350 352 352 351 351 350 352 351 352 348 346 350 354 356 355 357 340 339 343 353
315 317 318 320 321 325 331 337 339 337 337 334 341 348 350 352 353 351 352 351 352 352 354 351 351 353 355 356 358 340 335 338 348
314 316 317 318 322 325 328 328 334 341 344 344 344 350 349 352 352 353 353 351 351 353 353 354 352 354 356 356 357 335 334 333 338
313 315 316 316 319 324 326 326 328 332 335 339 337 344 354 354 353 353 353 354 353 355 355 353 356 355 355 349 357 336 330 333 351
313 315 316 316 318 319 323 325 323 323 327 327 331 334 337 357 355 353 355 355 356 355 355 355 353 354 356 357 355 356 328 323 353
312 313 315 314 315 317 322 324 320 318 320 323 326 329 332 353 357 355 356 356 357 356 355 354 354 354 354 357 359 338 331 322 325
310 313 313 314 314 316 319 321 320 316 319 323 324 326 331 349 357 356 355 356 356 356 356 355 354 354 354 355 359 361 329 322 320
308 311 312 313 313 314 316 318 320 317 320 323 324 325 329 353 356 356 356 358 358 358 357 355 355 354 354 355 356 358 362 345 333
308 309 313 313 313 314 316 317 317 316 318 322 322 324 328 340 354 353 357 357 358 358 359 356 356 356 356 354 354 355 345 349 353
309 309 311 312 313 316 315 315 314 314 315 319 320 321 325 324 333 343 355 354 350 318 325 321 321 325 345 356 329 327 322 318 323
308 310 309 314 316 314 312 312 312 312 313 316 319 320 321 324 325 333 337 351 353 352 333 314 309 310 320 318 323 306 306 306 309

GFSFLT1_sfc_thetae_084.txt.gz
Theta_e
325 328 332 335 337 336 334 337 337 343 344 341 342 344 344 345 341 341 344 345 346 348 348 348 350 350 352 352 348 350 351 350 350
328 333 334 335 337 337 336 337 338 339 344 342 342 342 342 342 346 341 342 346 347 348 348 347 348 353 352 351 351 349 351 348 348
330 330 334 336 337 337 338 338 340 340 342 344 343 342 341 341 343 346 341 344 346 345 346 346 347 351 354 352 351 351 351 348 349
328 330 334 337 338 339 339 339 340 341 340 342 344 344 341 340 341 344 345 343 343 349 343 346 349 349 354 352 352 350 349 350 348
327 332 335 337 340 339 336 336 339 341 343 341 343 345 344 340 340 342 346 346 342 344 346 352 352 350 353 353 351 350 349 348 350
328 329 330 330 334 336 336 335 334 339 343 344 343 345 344 343 338 339 343 347 345 341 345 347 352 351 351 352 351 350 351 351 350
321 324 325 326 329 333 333 336 336 337 340 345 345 345 343 343 342 338 339 346 344 345 346 347 350 352 351 351 351 350 349 350 349
319 319 320 322 324 334 334 337 341 342 340 344 346 344 344 343 345 344 339 339 345 342 347 349 352 353 351 352 351 351 348 349 349
317 317 319 321 324 325 329 334 339 339 343 344 347 346 345 344 345 345 344 340 340 342 340 349 348 351 353 352 354 342 340 346 348
316 317 318 318 321 324 327 329 337 338 336 337 337 345 348 347 345 345 345 346 342 341 340 337 347 348 350 351 354 338 337 341 350
312 317 316 317 318 323 327 329 328 336 341 339 338 340 343 349 348 346 345 346 346 344 344 340 338 349 350 350 351 336 334 338 349
311 315 318 316 319 321 323 326 327 329 335 339 339 340 337 338 349 348 347 347 347 348 347 346 343 342 347 351 352 332 331 334 348
311 313 317 315 317 319 320 324 324 324 324 327 328 329 332 337 335 350 349 349 349 350 350 350 351 349 348 343 351 333 329 333 352
309 312 315 316 314 315 318 323 320 316 320 320 324 327 331 336 336 344 352 351 351 350 350 350 351 351 351 351 351 352 326 324 352
307 309 313 315 314 314 316 320 320 316 314 319 322 325 329 331 335 343 353 352 352 350 350 350 349 349 351 353 354 335 327 322 326
304 307 311 313 314 313 316 319 318 314 315 317 319 323 326 331 333 342 353 352 351 351 351 351 350 349 349 350 353 355 326 321 321
303 306 309 312 311 313 314 316 318 314 314 316 318 320 324 328 325 344 351 353 353 353 352 351 351 350 350 351 352 354 356 342 332
301 303 307 312 311 311 314 314 314 314 313 313 315 318 322 325 326 332 349 352 353 354 355 351 352 352 352 351 351 352 342 346 353
299 300 305 309 310 313 314 313 312 311 311 311 312 316 319 322 324 326 333 348 347 318 322 320 319 323 342 354 334 325 320 317 315
300 302 304 309 314 313 311 310 308 309 309 310 311 313 317 321 322 326 327 329 337 347 333 316 312 310 314 316 331 312 308 310 312

GFSFLT1_sfc_thetae_087.txt.gz
Theta_e
328 330 333 334 334 333 333 336 338 341 340 340 342 342 340 338 337 339 340 341 341 345 347 348 350 348 350 350 349 348 348 348 348
324 327 331 334 336 334 333 335 338 340 340 340 342 342 342 339 338 337 339 343 344 344 345 349 349 348 349 350 348 346 348 347 346
323 326 329 332 336 336 334 335 337 341 342 340 341 343 343 343 342 341 339 341 345 344 345 344 346 349 349 349 349 346 347 346 346
322 326 328 331 334 337 336 335 337 337 342 341 340 341 342 342 342 342 340 340 342 345 345 343 344 346 350 349 348 349 347 346 346
321 325 328 334 336 337 337 335 336 336 338 342 341 341 340 339 339 340 343 341 340 341 345 344 344 346 346 350 350 348 347 346 349
318 322 323 329 333 332 335 335 335 338 338 339 342 342 340 339 338 338 339 343 342 339 343 345 348 347 346 349 349 348 349 347 346
317 318 321 323 325 327 332 335 336 336 338 342 340 342 342 340 338 338 338 340 344 344 340 343 345 349 349 348 349 349 349 349 347
316 316 317 321 323 326 328 330 339 341 341 340 343 341 341 341 342 339 338 338 341 343 344 344 344 346 349 348 348 350 347 348 348
315 315 316 318 322 325 325 327 328 333 337 342 344 342 342 343 343 342 338 337 337 341 342 344 345 346 346 348 351 340 338 345 346
313 314 315 316 318 321 326 324 325 326 336 338 339 343 343 344 341 342 342 339 336 337 340 340 342 345 348 348 349 336 335 339 348
308 313 314 315 316 318 322 325 323 324 330 340 338 343 345 346 344 342 343 343 340 336 338 339 337 340 345 348 350 334 331 336 346
306 309 315 315 316 319 318 323 323 321 322 327 333 338 335 337 338 343 345 343 343 343 340 338 338 336 336 343 346 330 330 332 345
306 308 312 316 317 316 318 319 321 320 319 320 322 324 328 334 336 335 339 346 344 345 345 343 343 341 338 335 343 329 326 331 348
305 305 307 313 316 315 315 319 320 318 317 316 320 322 325 329 333 336 336 338 348 346 345 346 345 345 344 341 341 344 324 323 348
300 303 305 309 312 314 315 317 319 316 313 316 318 320 323 325 329 334 340 338 344 348 346 345 346 346 347 348 348 329 324 320 325
299 300 303 306 309 312 315 316 316 313 312 314 314 317 321 322 327 330 333 336 342 348 347 346 346 346 346 348 351 350 324 319 319
298 299 300 303 306 309 312 315 315 314 312 313 313 313 316 320 325 325 328 337 348 348 348 345 346 347 346 347 348 351 353 338 329
296 298 299 300 302 306 309 314 314 313 312 311 310 312 315 318 323 324 326 332 346 350 352 347 347 348 349 347 347 349 339 342 347
296 296 298 298 300 304 308 313 312 310 309 308 307 309 312 313 318 322 326 329 332 322 319 315 313 314 337 350 331 322 313 313 312
299 299 299 299 300 304 308 309 309 309 307 307 305 306 308 311 314 319 323 327 329 331 333 311 308 309 311 313 324 311 308 309 307

GFSFLT1_sfc_thetae_090.txt.gz
Theta_e
323 330 334 334 332 332 334 337 338 339 339 339 340 341 341 339 340 342 342 344 345 346 347 350 353 351 352 353 353 353 352 352 352
322 325 332 334 335 332 333 337 338 339 340 340 341 341 341 339 338 340 341 344 345 347 349 351 353 352 350 354 354 352 353 351 352
321 324 329 334 335 335 333 336 338 340 341 340 341 342 342 341 339 339 341 343 345 346 348 350 352 352 352 352 354 352 352 352 352
321 325 329 330 334 337 336 337 337 339 340 341 341 342 343 343 341 340 339 341 345 348 349 349 348 351 352 352 353 353 351 351 351
320 323 326 328 332 336 337 336 337 337 340 341 341 342 343 343 343 343 341 340 342 345 347 349 349 348 350 353 352 353 352 351 353
316 321 323 326 326 329 333 336 337 337 339 342 341 342 341 342 341 341 343 343 342 342 345 346 348 349 349 350 352 353 353 352 352
315 316 319 322 324 325 327 329 337 339 340 341 343 342 341 340 340 339 341 343 344 342 344 345 346 350 350 351 352 353 353 352 351
313 314 315 317 320 323 323 324 327 332 339 341 342 341 342 341 341 341 341 341 342 345 344 344 346 347 351 352 352 351 352 352 352
310 312 314 316 317 320 323 322 323 326 329 338 340 342 341 344 344 343 340 340 341 343 345 345 344 344 346 349 351 340 338 348 352
304 307 313 314 315 317 321 322 322 321 323 329 340 340 343 343 344 343 342 340 339 339 342 344 344 345 346 346 349 334 334 339 352
302 305 307 314 314 315 317 323 323 321 321 323 325 332 341 345 345 343 343 343 339 338 339 342 342 344 346 347 348 332 331 335 349
302 304 306 308 316 316 317 318 323 321 319 319 319 321 325 330 337 343 344 343 343 342 339 339 341 342 343 345 345 328 328 333 347
303 304 304 306 309 314 316 316 320 320 318 317 316 319 321 325 330 334 338 345 344 345 345 343 341 341 341 335 344 328 325 331 348
301 303 303 304 305 307 314 316 318 318 318 315 318 319 321 323 327 331 337 338 340 346 346 346 345 344 344 342 337 339 321 321 349
299 300 302 302 302 303 310 315 317 317 315 316 318 318 319 321 324 330 334 336 338 339 347 346 345 345 345 347 345 326 323 318 323
295 297 299 301 301 301 304 312 316 316 317 315 315 316 317 319 322 327 329 330 333 335 342 345 345 344 345 346 349 348 321 317 318
295 296 296 298 299 300 300 305 312 317 317 314 313 313 314 316 318 320 326 329 332 334 339 345 346 345 345 347 349 351 352 337 327
295 296 297 297 298 298 299 302 305 312 316 313 311 311 313 315 316 317 322 326 329 331 335 342 347 348 348 348 347 349 340 341 345
297 297 297 297 297 298 299 301 304 309 314 311 309 309 311 312 312 315 319 323 325 318 312 310 309 315 333 349 330 319 310 310 311
298 298 298 298 298 300 301 302 304 309 311 309 308 308 309 309 309 313 316 319 323 323 326 313 310 306 310 312 326 310 308 307 306

GFSFLT1_sfc_thetae_093.txt.gz
Theta_e
329 331 333 340 340 341 340 343 345 346 349 351 351 351 355 357 356 352 354 358 355 355 355 357 365 364 363 363 363 362 363 360 361
323 332 331 337 341 341 341 343 346 347 350 353 352 351 355 354 355 354 354 359 360 356 361 358 362 364 363 362 364 363 364 358 362
323 327 334 334 341 341 342 344 346 348 349 351 353 351 353 351 352 353 354 356 358 358 360 361 361 362 362 363 363 364 364 361 362
321 325 327 334 339 343 342 343 345 346 347 348 349 351 353 353 351 351 353 352 355 358 360 362 362 362 363 362 362 364 364 362 361
317 322 325 327 331 332 340 342 343 345 345 346 348 351 353 351 352 352 351 351 352 356 358 361 362 362 361 361 362 364 362 360 359
316 318 321 323 324 325 326 331 339 343 345 345 346 349 347 350 350 350 351 352 353 353 355 358 360 361 361 360 361 361 362 362 361
316 318 317 319 322 322 322 324 327 332 344 347 348 348 346 348 350 352 351 354 354 353 354 354 356 358 359 360 361 361 361 361 361
313 316 316 317 316 320 323 322 322 326 329 339 349 350 348 349 352 353 353 353 354 355 354 353 356 356 357 358 359 358 361 361 361
308 310 315 317 317 316 318 323 322 323 325 329 341 346 348 351 352 351 351 351 352 352 353 354 354 355 354 354 353 339 340 354 360
307 308 310 312 316 317 317 319 324 323 323 325 329 329 336 349 351 351 351 351 350 351 351 353 353 353 353 355 357 334 335 340 360
306 307 307 309 310 313 318 319 321 325 324 324 323 323 325 328 334 349 352 352 351 351 350 351 353 352 353 355 354 332 331 336 357
304 306 308 309 310 310 313 318 321 323 325 321 322 321 322 325 328 331 336 349 350 351 349 350 350 351 353 353 355 328 328 334 351
303 305 306 308 309 310 310 313 317 320 322 321 320 320 322 325 327 328 331 335 339 346 350 347 347 348 351 343 355 332 324 332 348
303 303 304 306 306 307 309 311 313 317 319 320 322 321 322 323 326 326 330 334 337 339 344 349 351 350 351 352 350 351 322 321 351
301 301 302 303 303 304 306 309 310 312 315 321 323 319 320 322 323 326 330 331 330 333 341 342 343 350 350 351 354 332 325 318 322
301 302 302 303 302 303 305 308 309 309 313 318 321 321 318 319 321 323 327 327 327 330 335 341 342 343 345 348 352 354 322 317 317
301 302 302 303 302 302 303 306 307 308 310 314 318 320 320 317 318 319 320 323 327 330 331 336 339 341 344 346 350 353 355 344 335
302 302 302 303 302 302 302 305 305 307 309 312 315 318 319 319 316 318 318 320 321 324 329 330 334 339 347 347 348 352 341 344 353
302 301 302 302 303 303 303 304 305 307 309 311 313 315 317 317 316 316 317 319 319 315 311 310 308 307 313 338 329 319 314 312 312
301 300 299 300 301 302 304 305 305 307 309 311 313 312 314 316 314 315 314 315 316 318 320 310 308 304 304 303 313 310 306 306 306

GFSFLT1_sfc_thetae_096.txt.gz
Theta_e
332 336 338 339 341 346 346 348 351 353 354 357 359 360 360 362 363 358 357 358 352 354 354 356 367 362 364 363 362 365 366 361 358
326 335 337 338 345 346 347 348 350 353 355 358 360 358 361 361 362 361 357 360 360 355 360 357 364 363 360 360 362 365 366 360 362
323 328 337 339 341 346 347 349 350 353 356 356 358 358 358 359 361 362 361 359 360 360 361 362 362 365 364 362 362 363 364 362 364
320 324 328 334 331 341 348 349 348 351 354 355 355 357 358 359 359 360 361 357 359 360 364 365 364 366 365 363 362 364 366 363 360
317 321 323 327 331 334 338 345 348 350 351 352 354 356 357 357 358 360 357 358 358 359 361 365 364 364 367 365 365 366 364 358 358
317 318 319 321 324 323 325 329 339 346 349 350 351 354 354 355 356 356 357 358 359 359 359 361 361 363 364 364 365 365 366 363 360
318 319 319 319 319 321 323 324 324 332 341 349 349 349 352 353 355 356 356 360 361 360 360 359 359 361 362 363 364 365 364 364 364
317 317 320 322 321 322 323 325 326 324 327 334 345 352 351 352 357 355 356 357 358 360 360 360 360 359 358 360 360 358 364 364 363
316 316 317 318 320 323 323 324 326 327 326 326 332 341 349 354 355 357 357 358 359 360 359 360 360 360 358 356 352 340 339 354 361
312 313 314 315 316 317 321 324 327 328 329 327 328 329 336 342 348 351 354 356 357 357 358 359 359 359 359 358 358 335 334 341 358
311 311 312 314 314 315 316 319 324 328 330 329 326 326 326 331 338 338 344 353 356 358 357 357 358 358 359 359 359 334 330 336 357
310 311 312 313 315 314 316 317 318 321 327 330 328 327 325 326 329 330 333 339 346 347 357 357 358 357 358 359 360 330 328 336 352
308 309 310 310 311 312 314 316 317 317 319 325 328 329 328 326 326 328 328 331 335 342 345 352 353 354 357 348 359 335 324 333 352
307 308 308 309 310 310 312 314 315 315 317 319 325 328 330 330 327 326 328 332 334 333 338 345 347 349 355 357 354 356 323 321 353
306 307 308 308 308 310 311 313 313 314 315 319 322 323 327 330 330 327 326 330 331 332 334 336 347 344 344 350 357 338 331 319 321
306 307 308 308 308 309 311 312 313 312 316 317 317 318 321 327 330 329 329 327 326 330 334 334 336 343 343 344 348 355 326 320 318
306 307 307 308 308 308 309 311 312 313 314 315 315 316 319 323 325 327 328 326 324 321 323 329 334 335 340 343 345 349 352 355 338
306 307 307 307 307 307 308 311 311 312 313 314 313 314 316 320 322 325 326 326 323 320 322 320 325 328 335 336 338 346 325 323 350
306 307 307 306 306 306 307 308 309 312 314 313 313 312 314 316 319 321 322 323 323 311 309 308 305 303 312 329 319 311 308 307 309
306 306 307 306 303 304 304 304 306 311 313 314 312 312 314 316 315 318 320 321 321 320 319 307 305 304 304 302 306 303 302 301 302

GFSFLT1_sfc_thetae_099.txt.gz
Theta_e
334 338 343 344 344 345 345 346 347 349 360 363 361 361 363 368 365 358 355 360 355 355 351 354 366 362 362 364 363 363 366 361 358
327 336 342 343 343 346 345 348 349 352 359 365 362 361 367 367 367 365 359 364 363 356 361 361 365 360 363 363 362 364 367 362 361
324 332 339 342 341 343 347 348 349 352 356 361 361 363 362 361 363 365 364 361 361 364 364 361 355 363 359 361 363 363 367 364 365
321 325 330 336 340 341 347 345 345 351 354 358 360 361 363 365 362 363 364 360 360 361 365 363 364 365 363 362 360 362 366 366 364
319 322 327 332 334 334 329 332 338 350 343 354 355 359 361 360 362 362 361 362 360 361 364 367 364 365 365 364 363 367 363 359 357
318 319 321 325 328 329 330 326 329 340 345 343 345 359 358 359 360 361 361 361 362 362 364 364 362 366 366 363 364 366 367 364 360
320 320 321 321 322 325 326 327 328 327 334 337 344 351 351 360 361 361 360 361 363 363 365 364 365 368 368 365 364 363 361 364 367
320 320 320 321 321 323 326 330 329 328 327 329 335 347 353 353 360 359 360 361 362 362 365 363 365 365 364 362 361 357 365 366 365
319 319 319 320 322 323 325 329 330 331 327 329 329 332 337 345 354 357 360 359 362 362 361 366 367 364 363 361 353 339 339 352 363
317 318 319 319 319 320 321 325 328 329 331 329 330 329 327 332 338 341 352 357 359 360 362 362 364 365 364 364 365 339 333 340 358
315 315 316 317 318 319 320 321 322 326 331 333 333 330 329 327 331 333 338 342 356 358 361 361 362 360 363 364 363 337 332 334 356
315 315 316 316 317 316 319 320 321 321 323 329 332 332 332 331 330 330 332 336 339 345 355 355 360 360 362 362 365 333 329 336 354
312 313 313 314 314 316 317 318 318 319 320 321 325 329 332 334 334 328 329 331 332 335 341 348 350 354 360 351 362 339 325 333 354
311 311 311 312 314 313 315 317 317 317 319 320 323 325 325 329 334 335 331 331 333 334 334 338 341 345 350 357 357 358 324 321 357
309 310 310 311 312 312 314 316 316 316 317 321 322 323 323 324 328 331 332 333 332 331 335 335 339 338 343 348 356 338 335 319 321
309 309 310 311 311 311 313 315 316 314 317 319 319 319 320 322 325 327 331 333 332 328 332 330 336 338 338 344 355 351 328 321 319
309 309 309 311 310 310 311 314 315 316 317 318 318 317 318 319 320 324 327 326 328 328 325 324 324 327 330 340 342 349 350 350 350
309 309 310 311 310 309 310 312 313 314 315 316 315 316 316 317 318 320 323 326 326 328 332 324 324 323 322 325 330 338 317 316 327
309 309 310 309 310 310 310 310 310 312 314 315 314 314 314 314 315 317 319 321 323 313 312 307 305 305 312 324 314 310 308 304 302
308 309 309 309 308 307 307 307 307 308 312 314 314 313 315 314 313 315 316 319 319 319 319 307 303 301 302 300 307 302 300 298 299

GFSFLT1_sfc_thetae_102.txt.gz
Theta_e
335 339 341 341 342 342 343 343 346 351 357 360 362 362 365 367 365 360 355 358 356 348 352 350 361 364 366 368 365 365 367 367 365
330 335 341 340 343 343 342 345 344 352 357 360 362 361 364 367 368 368 363 369 370 362 351 353 366 363 366 367 365 367 367 365 365
325 331 335 340 341 340 347 348 348 352 359 361 363 363 365 364 366 367 368 373 368 373 359 353 351 342 363 368 368 369 366 364 365
321 326 330 333 336 338 343 344 340 342 347 359 361 363 364 364 364 366 368 366 368 367 373 354 337 336 345 365 366 367 368 364 363
320 324 328 331 333 333 333 339 340 338 338 342 347 353 361 362 366 366 364 365 366 368 368 372 358 350 360 360 366 365 366 361 361
318 323 326 328 330 332 332 332 333 337 335 338 345 356 355 360 362 361 366 366 367 367 368 369 370 372 367 367 362 363 365 364 363
320 320 322 325 327 329 331 331 330 330 333 335 341 346 346 353 360 362 364 367 366 368 368 366 367 369 368 367 365 364 363 361 363
319 320 320 323 324 326 330 331 330 329 330 331 334 338 339 341 346 356 361 364 363 364 366 365 366 366 366 367 364 358 363 364 363
318 319 319 320 322 325 325 328 330 328 329 330 331 331 330 337 341 341 343 351 357 363 363 364 366 364 363 361 357 341 339 356 360
318 318 319 319 319 320 324 324 329 331 330 331 329 330 330 330 336 338 338 342 343 354 358 360 362 362 362 362 363 341 335 337 355
317 317 317 318 317 318 321 321 322 328 330 336 334 332 330 331 332 332 333 335 336 340 345 355 357 360 361 360 360 339 334 336 354
318 317 317 317 317 317 320 319 322 324 326 328 332 331 333 335 335 332 330 332 333 334 337 341 350 356 357 359 360 338 328 334 355
315 315 315 314 314 316 316 317 318 320 321 325 325 326 327 329 334 336 334 332 333 337 336 339 341 344 353 348 358 339 330 331 354
313 313 312 314 314 314 315 317 318 318 319 319 322 323 326 327 329 330 336 336 339 335 332 334 338 338 345 348 350 355 328 322 349
311 311 311 312 312 313 314 317 318 317 318 321 322 323 322 325 327 326 326 333 338 338 336 333 334 338 339 343 349 336 334 324 320
310 310 311 312 311 312 314 317 319 315 320 322 321 321 321 322 324 325 327 329 332 333 335 333 330 327 331 336 345 348 330 319 317
309 310 310 311 311 310 311 316 316 318 318 318 317 317 318 320 320 320 323 323 324 325 327 330 329 328 325 325 325 334 337 333 331
309 310 310 311 310 310 311 312 313 313 315 316 314 315 316 317 318 319 319 321 322 324 328 326 328 329 326 323 321 324 313 318 324
309 310 310 310 311 310 309 309 310 312 312 314 313 312 313 314 315 316 316 317 318 315 309 308 305 305 315 323 312 306 304 301 299
306 309 309 309 309 309 308 308 308 310 310 311 310 310 312 314 314 316 316 316 317 316 319 308 303 301 301 301 308 304 299 298 299

GFSFLT1_sfc_thetae_105.txt.gz
Theta_e
334 337 337 338 339 338 337 339 343 346 349 351 351 351 351 349 347 344 337 343 349 346 347 347 347 355 354 353 355 355 352 349 351
329 331 335 340 338 342 341 340 342 345 348 351 354 353 353 351 351 346 344 344 350 346 348 352 353 354 354 354 353 353 353 351 349
326 330 333 335 338 341 344 343 344 343 344 342 350 353 354 354 353 353 354 353 351 349 350 347 345 346 350 353 355 354 351 350 352
324 327 331 332 332 334 338 340 339 340 338 335 335 335 344 352 353 353 354 353 350 350 349 347 341 342 339 345 353 353 353 351 350
323 328 329 331 331 332 333 336 336 337 339 336 335 336 342 350 352 353 354 354 354 352 347 347 344 338 339 344 352 352 351 349 351
321 324 326 327 327 327 329 331 335 338 335 334 338 342 342 347 350 353 352 354 355 354 353 350 345 343 348 350 352 353 354 354 352
319 321 323 325 326 325 325 328 330 332 333 336 338 340 339 340 340 347 350 353 355 356 356 354 354 353 354 352 353 353 353 354 353
316 319 321 322 325 326 324 324 325 326 329 330 334 333 335 337 339 340 343 348 350 353 354 355 355 355 356 356 356 355 353 353 353
315 314 316 321 320 322 326 325 325 326 327 327 329 330 332 336 338 339 339 340 339 348 350 351 353 353 351 351 358 345 340 349 351
315 314 314 315 315 315 316 318 325 326 327 328 328 327 329 331 333 333 335 338 338 339 339 347 348 350 352 352 354 342 336 336 345
314 313 311 310 311 312 313 315 317 320 326 329 327 327 329 327 327 328 332 333 334 336 338 340 342 347 350 351 353 340 334 334 339
313 311 309 309 312 313 312 312 314 317 319 320 320 321 322 323 325 328 326 325 329 332 334 337 339 341 339 343 350 337 329 333 341
310 309 309 309 310 311 310 310 313 313 315 315 315 317 318 321 322 322 322 325 327 327 329 333 336 336 337 336 342 335 328 329 343
308 307 308 309 310 309 309 312 312 311 312 311 314 316 316 318 319 319 319 321 328 329 327 327 328 332 334 338 338 338 329 323 337
307 306 307 309 307 307 310 311 310 309 310 313 314 314 314 315 317 318 319 318 320 324 330 328 327 327 330 335 338 330 327 318 317
306 306 306 307 305 306 308 309 310 308 308 310 310 309 310 311 314 315 317 317 317 316 321 324 326 322 318 321 322 323 318 316 319
304 305 305 306 305 305 305 307 307 306 308 309 308 307 307 309 309 310 311 313 315 315 316 317 321 321 318 318 319 318 328 324 325
304 304 305 305 304 305 304 305 304 306 306 306 305 306 307 307 309 308 308 309 311 313 314 314 316 318 320 318 316 317 317 313 316
305 304 304 304 304 303 302 303 303 304 305 304 303 303 306 307 308 310 309 309 308 309 306 304 303 302 305 316 312 308 305 301 298
306 303 304 303 302 302 302 302 302 303 304 303 302 300 302 304 306 308 307 308 308 307 309 306 304 303 300 299 303 302 301 297 296

GFSFLT1_sfc_thetae_108.txt.gz
Theta_e
332 335 336 339 339 336 337 340 344 348 345 345 348 347 347 343 342 345 345 344 344 345 346 345 348 351 351 351 349 349 349 347 348
329 332 337 338 341 342 338 339 342 346 348 346 345 349 348 345 344 342 337 340 346 348 345 346 352 352 351 352 351 350 350 348 347
327 332 335 337 339 339 341 341 344 346 344 340 338 340 343 348 346 345 341 341 344 345 345 349 348 347 351 351 351 350 350 346 349
325 329 330 332 335 338 338 339 340 338 336 333 332 336 339 342 346 351 350 348 348 348 346 344 340 346 344 347 350 351 349 346 349
326 328 329 330 332 334 336 336 337 337 335 336 337 339 341 343 346 349 349 350 348 348 346 344 339 341 337 340 346 349 349 348 349
324 325 326 327 328 330 333 333 336 335 337 337 340 341 340 342 343 347 350 348 350 348 346 345 342 339 337 337 345 350 350 349 346
323 324 323 323 324 326 329 332 333 334 335 337 339 338 339 339 339 341 344 346 348 350 349 345 344 341 340 344 348 350 350 351 350
320 322 323 322 320 322 324 326 326 329 330 333 333 334 336 338 338 339 340 340 340 347 349 351 350 348 348 350 349 352 349 349 349
317 319 320 323 324 323 322 323 324 325 325 326 329 331 334 335 335 336 337 338 339 340 341 346 347 349 351 350 356 344 340 348 349
314 317 316 315 315 316 317 324 324 324 325 326 326 326 326 328 331 330 332 335 336 337 337 339 340 343 346 348 350 340 336 336 341
312 310 312 311 310 312 314 316 320 327 327 324 322 321 321 324 327 328 329 331 331 333 336 338 339 338 339 340 347 333 331 333 339
309 306 308 308 309 309 310 313 315 317 317 317 317 317 317 319 321 321 324 326 329 331 332 334 335 338 338 338 340 329 328 331 340
307 308 308 308 308 308 310 310 312 311 310 310 311 312 314 315 316 317 318 319 324 328 326 328 331 334 336 332 338 330 325 329 339
307 308 307 307 308 307 308 309 309 307 308 308 310 312 312 313 313 313 314 315 318 320 323 327 327 326 328 334 335 336 324 323 337
305 306 306 306 306 306 307 308 308 305 305 307 308 308 309 309 310 313 315 313 315 315 316 319 322 323 324 324 324 321 316 315 318
304 305 304 305 305 304 305 305 305 303 303 305 306 305 305 306 307 308 309 309 310 311 312 313 315 320 320 318 320 322 316 315 317
304 302 303 303 303 302 302 302 303 303 303 304 303 302 303 305 305 307 307 307 308 308 308 308 310 311 312 317 317 319 319 322 319
303 302 302 303 302 301 300 301 302 302 302 301 301 301 303 303 305 304 306 307 305 307 307 307 306 306 309 313 313 317 313 314 316
303 302 303 301 300 299 299 300 300 300 301 301 299 298 299 300 301 302 304 304 305 306 303 303 300 299 301 307 306 303 301 300 298
303 302 301 300 300 300 300 299 299 299 299 300 298 296 297 298 300 301 301 301 301 301 305 304 302 301 301 299 299 298 297 296 295

GFSFLT1_sfc_thetae_114.txt.gz
Theta_e
329 332 333 333 335 335 336 339 341 343 341 341 344 346 346 344 342 343 344 346 347 348 347 349 352 352 351 351 352 352 354 352 352
327 331 334 334 335 339 337 339 342 342 340 340 344 345 346 343 341 339 342 346 347 349 350 350 351 352 353 353 353 353 353 351 352
328 331 334 336 337 340 340 339 341 345 342 341 344 346 346 344 342 343 345 345 345 349 349 350 350 351 352 353 353 353 352 352 352
325 330 332 334 336 340 339 341 343 346 343 340 343 345 346 345 346 347 345 342 342 346 350 349 349 348 350 351 352 352 352 352 351
326 328 330 334 335 339 338 338 337 336 336 337 338 340 341 341 343 345 348 348 346 345 346 348 349 349 348 351 351 353 351 351 352
326 326 328 332 334 335 336 335 335 334 337 338 339 340 340 339 341 342 344 348 350 351 349 347 345 344 345 346 348 349 352 351 351
325 325 326 327 330 333 334 334 335 336 338 337 338 338 338 336 339 341 342 346 349 351 350 348 347 344 342 344 345 346 348 351 351
321 321 323 324 325 330 331 331 333 334 336 333 335 337 337 336 338 340 340 341 342 344 348 349 349 347 347 345 343 343 345 350 352
319 319 320 321 323 326 329 330 331 331 330 329 334 331 330 331 333 336 337 338 338 340 342 343 344 344 346 349 350 331 335 343 351
320 318 315 316 321 323 324 325 327 326 326 326 323 322 322 324 330 330 331 332 335 337 337 337 339 339 340 342 342 327 328 335 348
316 314 315 317 319 320 319 319 319 319 320 319 316 316 316 318 320 322 326 330 330 329 331 331 334 336 338 339 340 327 325 330 345
312 311 312 315 317 316 315 314 315 316 317 316 314 313 314 316 317 317 318 320 324 326 330 331 332 335 336 337 339 326 324 331 342
310 309 311 313 314 313 313 314 313 311 310 311 310 311 312 313 315 314 315 316 318 321 324 327 330 329 330 328 338 319 320 327 339
310 309 310 311 310 310 309 309 308 306 307 306 308 310 311 311 311 312 312 314 314 314 317 318 320 324 326 327 327 326 315 317 333
305 306 307 308 307 306 306 307 306 304 304 306 308 309 309 308 309 310 309 310 310 310 311 312 313 314 314 317 321 318 317 313 315
304 305 305 307 304 303 304 305 305 303 304 305 305 305 305 306 307 307 308 307 307 307 307 307 309 310 310 311 314 316 312 311 310
305 305 304 303 303 302 301 303 303 303 304 304 303 302 303 304 304 304 305 305 306 305 305 305 306 307 307 308 310 311 309 308 310
306 305 304 303 302 301 301 301 300 302 302 302 300 300 301 301 302 302 302 303 304 304 305 304 305 305 305 306 307 307 300 300 304
305 304 304 303 302 302 301 300 300 301 301 300 299 299 299 300 300 300 300 300 300 301 300 299 297 297 301 306 302 298 297 295 294
306 305 304 303 302 302 300 300 300 300 301 300 299 298 299 299 299 299 299 299 298 297 300 300 299 297 298 297 296 297 296 293 294

GFSFLT1_sfc_thetae_117.txt.gz
Theta_e
332 334 337 338 339 342 343 343 347 349 351 352 354 355 356 356 357 354 354 357 354 355 356 366 362 361 362 362 362 361 363 361 361
330 335 337 337 340 341 343 343 346 349 350 352 354 354 359 358 356 354 354 357 359 357 361 362 360 361 361 361 361 361 363 359 361
331 334 337 338 340 343 345 344 347 350 352 352 354 356 357 359 355 355 353 354 357 359 360 361 361 361 360 362 362 363 362 360 362
331 333 335 338 338 344 346 347 346 351 352 352 352 355 358 357 356 354 356 354 356 358 359 360 360 361 361 361 361 362 362 362 361
333 334 337 339 339 341 343 344 346 349 353 352 353 354 356 355 355 357 356 355 353 355 356 359 359 360 359 359 361 361 361 358 357
332 334 336 338 338 340 342 341 339 340 344 346 350 352 352 351 352 352 355 357 359 358 358 359 358 357 357 357 359 361 360 361 359
327 330 330 333 336 338 337 339 340 340 341 343 345 346 342 344 346 347 347 352 359 360 361 360 358 357 356 355 355 356 358 360 360
325 325 327 329 331 334 335 336 336 337 338 339 342 341 341 341 343 345 347 347 351 358 361 360 359 358 357 354 353 351 354 356 357
324 324 325 326 327 330 332 334 334 332 332 333 336 335 338 338 342 342 340 343 346 349 353 355 356 356 358 358 356 329 334 346 354
323 323 322 324 326 327 330 332 332 329 327 325 325 324 329 330 335 338 339 339 339 341 343 350 350 350 350 348 348 327 330 337 359
321 320 321 321 319 319 319 320 321 321 319 319 320 319 323 325 327 331 334 337 338 339 340 342 343 345 347 348 344 325 325 331 357
320 320 319 318 317 316 317 317 318 318 318 316 316 316 319 321 326 326 324 325 329 335 336 338 338 341 342 345 344 325 325 337 348
315 317 317 315 314 315 315 314 315 314 314 315 314 315 315 318 320 321 320 321 321 326 330 332 334 338 340 329 334 317 317 328 337
315 317 315 313 313 310 311 312 312 309 310 310 311 315 315 314 316 316 318 319 321 323 325 327 328 330 332 333 327 321 312 313 332
311 311 312 312 309 308 309 310 310 309 307 310 312 313 312 312 312 313 314 318 317 319 320 320 321 321 321 320 323 311 310 309 310
310 310 311 311 309 308 308 309 309 306 308 310 310 310 310 311 312 312 312 313 313 312 316 316 317 317 317 317 319 318 310 309 310
312 313 312 313 311 310 310 311 311 311 310 311 311 309 309 309 309 309 310 309 309 310 311 313 313 313 313 315 316 313 313 315 318
309 311 312 312 311 310 309 310 310 310 310 310 308 307 308 307 307 307 307 307 306 308 307 307 309 310 312 312 311 307 301 301 309
308 308 309 310 311 310 309 309 309 309 309 310 309 307 306 305 305 305 305 306 305 300 300 298 297 297 301 307 300 297 296 294 294
310 310 309 308 307 307 306 307 308 309 309 310 308 307 306 304 304 304 303 304 304 303 301 299 297 296 296 296 295 295 295 294 295

GFSFLT1_sfc_thetae_120.txt.gz
Theta_e
338 339 337 335 343 346 348 349 352 352 355 356 358 358 360 360 360 360 364 359 353 352 352 356 361 363 362 363 365 363 367 361 359
335 338 336 338 340 345 347 349 351 353 354 358 358 357 361 362 360 361 365 363 360 357 359 355 359 360 360 361 362 364 365 358 362
337 338 336 339 342 345 348 349 351 354 356 357 358 357 358 358 359 361 363 365 363 363 362 359 361 360 360 361 362 362 365 360 363
337 338 340 339 344 347 348 349 350 352 355 356 356 357 357 359 357 359 362 358 361 364 363 363 362 362 360 360 360 362 365 361 360
338 339 340 340 343 346 349 349 349 351 355 355 356 357 358 356 358 358 357 360 361 363 366 367 365 363 361 361 360 362 361 358 356
337 337 339 341 343 345 346 348 351 352 354 355 356 358 356 356 356 356 357 358 358 361 362 364 365 365 364 359 360 361 360 360 359
334 336 339 339 341 344 345 347 347 349 352 354 355 356 355 356 357 357 357 360 361 364 363 364 364 365 364 362 361 362 360 360 360
330 332 333 337 339 341 343 344 345 346 349 349 350 349 350 351 352 356 356 356 360 363 362 358 360 363 363 361 359 357 361 360 360
331 332 333 335 337 338 339 338 340 341 340 341 346 345 345 346 349 349 349 351 352 356 361 362 363 362 361 360 357 332 337 348 359
329 330 333 334 337 337 338 336 332 328 327 333 333 336 344 343 346 347 348 348 349 347 351 357 358 360 359 358 355 328 330 338 360
327 330 329 325 324 323 326 332 332 331 325 325 324 325 328 333 337 340 342 344 345 347 348 349 350 352 354 350 341 325 327 333 361
332 328 324 320 319 319 320 324 330 328 327 321 324 321 322 325 327 329 330 333 339 344 345 346 347 347 350 339 333 317 319 334 356
329 324 321 318 317 315 314 316 321 320 316 320 319 321 319 322 325 327 325 325 333 337 342 338 343 340 337 330 331 312 313 326 345
327 324 319 319 314 311 312 314 314 312 315 313 315 317 318 319 324 322 325 329 331 330 334 338 333 332 333 327 324 318 311 311 333
316 315 315 314 312 311 311 313 312 310 311 314 315 316 315 316 317 318 320 324 327 330 331 330 330 331 330 328 326 312 311 310 312
315 317 317 314 310 309 313 312 313 311 312 315 314 315 315 315 315 315 316 318 319 319 324 326 326 326 326 325 325 323 312 311 312
312 312 312 315 310 309 309 311 312 313 314 315 317 315 315 315 315 315 314 313 314 315 316 316 316 318 320 322 321 316 317 319 321
313 312 313 312 310 310 310 311 311 312 313 315 314 314 314 314 313 313 312 310 310 309 306 307 314 315 313 313 312 306 301 301 309
309 311 312 314 314 313 311 312 313 314 315 317 315 313 312 311 311 311 310 309 307 300 300 298 297 296 302 306 298 296 296 295 295
312 310 312 311 314 314 314 312 312 315 315 316 314 312 312 309 309 309 309 309 308 304 300 298 296 295 295 295 293 294 294 294 295

GFSFLT1_sfc_thetae_123.txt.gz
Theta_e
337 334 337 336 341 342 348 346 347 349 355 357 357 358 360 361 361 356 357 359 355 350 350 355 361 362 362 363 364 363 365 362 359
337 336 337 336 340 343 345 346 349 352 355 358 358 356 360 362 361 359 357 361 364 355 360 356 359 363 364 362 363 363 365 358 360
336 339 339 339 339 343 345 348 351 353 355 358 358 356 357 357 359 360 360 360 361 361 361 358 361 360 360 361 362 363 366 363 366
337 338 341 339 339 343 346 350 352 352 354 357 357 356 357 358 357 358 361 357 359 362 363 363 361 361 361 360 360 362 364 365 363
338 339 342 340 340 344 347 348 352 352 355 355 357 358 358 356 357 358 358 359 360 362 363 366 364 362 362 361 360 362 361 359 356
339 341 338 342 345 345 348 349 354 353 355 356 357 357 357 357 356 355 356 359 360 361 362 364 362 364 362 361 360 361 362 362 360
338 340 341 343 344 345 347 350 352 353 354 357 360 356 356 359 358 357 355 360 360 360 363 362 362 363 362 361 361 361 360 360 360
338 337 338 339 343 346 347 349 349 352 353 356 360 358 360 359 363 363 359 360 361 361 362 358 362 363 361 360 359 355 361 359 358
334 336 338 340 342 344 344 346 347 348 351 352 355 356 354 356 356 356 358 359 360 361 361 361 362 361 361 360 357 332 337 350 360
332 334 335 339 341 342 342 341 337 335 339 343 346 348 348 349 350 350 352 354 354 356 359 363 361 361 360 358 353 328 331 339 357
331 334 333 332 333 335 337 334 332 332 332 337 332 328 330 336 341 344 349 350 351 352 353 356 357 357 358 346 331 320 322 330 353
335 333 330 327 327 326 330 333 333 334 334 332 329 324 324 327 330 333 333 338 342 347 349 351 350 350 341 336 328 315 317 328 358
329 330 325 320 319 318 317 322 332 330 329 331 330 322 322 325 326 325 325 330 329 338 342 344 340 338 337 326 328 313 314 322 356
328 325 322 319 316 313 314 316 318 323 327 325 326 325 324 323 322 324 327 328 327 330 337 335 332 328 325 326 326 319 312 313 334
323 322 320 318 315 312 313 314 314 313 315 321 322 321 318 319 321 321 327 330 330 331 331 335 332 330 324 323 318 314 312 312 314
317 317 315 316 315 312 313 315 315 313 314 317 318 317 316 320 320 320 323 321 325 328 332 332 334 331 329 327 327 325 313 313 313
314 315 314 314 314 310 311 313 315 315 316 317 317 316 317 318 317 318 318 317 319 319 319 321 322 324 324 325 322 316 315 316 318
314 314 313 314 313 310 311 314 312 314 317 318 318 316 315 316 316 316 315 313 311 309 304 305 315 313 312 315 310 305 300 300 306
317 314 315 314 313 311 312 311 313 316 315 317 315 313 315 314 313 314 313 311 307 299 299 297 295 295 302 301 298 296 295 294 295
314 315 315 311 314 314 313 314 313 316 317 317 317 316 314 315 311 313 313 311 309 304 300 298 296 295 295 295 295 295 294 294 294

GFSFLT1_sfc_thetae_126.txt.gz
Theta_e
334 336 335 338 341 339 340 343 343 350 357 357 359 360 360 366 367 359 360 363 365 356 349 355 364 367 369 367 369 369 369 367 366
333 336 334 337 341 339 339 339 344 353 356 358 359 359 361 363 366 364 363 365 362 358 358 359 365 365 368 367 357 370 368 365 364
335 336 334 336 340 339 335 340 346 354 358 358 358 358 360 360 362 365 366 367 367 368 369 354 360 364 362 363 360 367 368 364 365
336 335 335 337 340 347 344 344 345 353 354 358 358 357 359 360 360 362 363 362 364 365 369 371 366 368 361 365 360 366 366 364 363
339 339 339 341 340 343 344 343 343 343 355 356 357 357 360 360 362 364 361 362 364 367 369 371 366 367 367 361 365 361 362 363 360
341 341 342 342 342 344 345 336 337 333 333 355 357 358 357 358 359 362 362 362 359 364 367 364 365 367 366 366 363 361 363 362 361
340 341 342 342 341 348 349 341 334 335 345 354 354 352 353 356 358 361 359 364 365 366 364 363 364 365 363 364 363 366 357 358 361
340 340 339 340 342 345 347 345 344 351 355 360 362 354 360 355 362 363 363 364 364 365 365 363 363 362 361 361 364 351 349 358 357
337 338 339 341 344 345 347 349 349 352 354 358 360 358 356 357 361 362 361 363 362 363 363 364 362 363 356 356 347 333 335 345 363
337 338 339 340 342 345 347 343 347 346 350 352 349 349 351 352 355 357 357 358 359 360 361 361 359 358 354 347 337 325 329 336 356
336 337 336 338 341 341 341 345 344 344 344 341 339 336 335 337 339 337 346 350 349 352 358 360 360 357 347 336 325 318 321 328 350
335 334 331 327 328 328 336 336 336 337 336 333 330 327 327 328 329 328 332 330 337 343 353 351 343 340 335 329 322 316 318 330 351
328 327 327 323 321 319 321 324 334 333 333 330 327 326 327 328 326 325 326 327 330 335 338 337 332 329 329 324 323 314 315 330 344
325 322 319 317 315 314 315 318 325 328 329 326 326 327 325 324 327 327 327 326 328 331 333 330 326 324 325 326 322 319 313 315 328
321 318 317 315 313 313 314 315 316 315 316 324 326 325 322 321 322 324 327 327 328 329 331 327 326 323 320 321 323 315 313 312 314
318 319 317 314 312 312 314 314 314 312 314 318 319 321 319 321 322 323 323 323 326 331 329 329 329 327 320 317 318 318 313 314 313
314 314 313 314 312 310 310 314 314 314 316 318 318 317 319 321 320 321 323 317 318 314 311 319 328 324 322 318 310 309 308 307 310
313 313 313 313 311 312 312 313 313 315 317 317 315 316 316 316 316 317 310 304 305 305 300 303 312 311 308 313 307 301 299 298 300
317 314 314 314 312 310 310 313 312 314 315 317 315 314 314 314 314 313 312 307 303 299 298 296 295 296 302 299 298 297 296 295 295
317 316 315 314 313 314 314 312 312 313 315 315 312 312 310 311 313 312 310 308 305 299 299 298 296 295 296 296 296 296 295 294 295

GFSFLT1_sfc_thetae_129.txt.gz
Theta_e
328 328 330 333 335 339 341 342 347 349 346 347 349 351 350 351 350 349 350 349 348 348 348 347 350 353 352 352 354 354 354 352 352
327 327 330 331 337 338 335 340 342 349 347 348 350 350 351 351 352 349 348 351 352 350 349 356 355 353 354 352 353 354 354 352 349
330 329 332 334 337 337 338 339 342 346 350 348 349 352 351 351 351 352 352 352 351 350 349 348 353 353 353 353 351 355 349 350 351
326 330 330 331 337 338 338 341 343 341 345 348 348 352 351 350 351 352 353 351 351 352 352 347 347 350 350 352 355 353 352 349 349
330 331 331 334 336 335 334 337 338 340 340 336 347 350 352 352 352 353 352 351 352 354 351 353 353 352 353 351 352 350 352 349 351
327 334 331 332 336 335 335 332 334 339 336 337 338 345 350 350 349 351 351 351 353 354 353 353 354 353 351 350 350 351 354 351 350
327 330 332 332 338 339 335 336 336 334 336 339 337 337 348 348 347 349 351 352 352 351 354 352 352 353 351 351 351 351 351 351 350
331 332 334 337 337 337 336 336 336 338 338 336 336 338 345 345 347 350 349 351 350 351 351 354 353 352 352 351 348 343 339 345 351
325 330 334 338 340 336 332 331 333 334 335 337 344 343 340 341 345 347 346 349 351 350 351 353 351 351 348 344 341 330 333 340 347
327 333 333 334 337 339 340 340 340 340 339 339 338 338 339 340 341 342 344 345 347 348 349 350 348 346 341 333 327 323 327 334 346
331 326 327 329 334 335 336 338 339 338 335 332 332 332 332 333 332 334 333 335 340 343 344 344 343 335 328 323 321 319 321 329 343
326 325 324 323 325 330 333 334 337 333 330 327 327 326 326 328 330 328 329 329 332 339 342 338 335 330 323 318 316 316 321 332 345
319 320 320 318 319 320 324 326 332 328 325 325 324 324 325 325 327 327 327 330 331 334 332 329 326 323 323 320 316 315 315 325 340
318 316 316 316 315 314 316 320 325 324 323 322 324 324 321 322 323 326 327 328 331 330 326 324 322 320 321 319 317 315 312 315 318
315 314 313 314 313 313 314 317 317 315 315 320 321 319 317 317 318 322 325 327 328 329 325 321 320 319 318 319 317 312 310 311 314
314 314 313 313 312 312 314 314 315 313 315 317 319 317 317 318 319 320 319 320 324 324 328 324 322 318 315 315 313 311 308 308 309
314 312 309 309 308 308 309 311 313 313 315 317 316 315 316 317 315 308 306 307 305 304 305 316 318 320 315 309 307 305 302 302 303
312 312 312 309 308 307 309 310 310 314 316 315 314 314 314 314 311 305 300 298 299 300 296 299 308 306 308 307 302 298 298 297 297
312 308 308 307 307 306 306 307 308 311 312 313 314 313 314 312 311 309 305 300 297 299 298 297 296 297 298 297 297 297 296 295 295
313 309 308 306 305 305 307 307 306 309 311 310 309 307 308 310 311 309 305 303 299 296 298 298 296 295 295 297 296 296 295 295 295